Time,TemperatureF,DewpointF,PressureIn,WindDirection,WindDirectionDegrees,WindSpeedMPH,WindSpeedGustMPH,Humidity,HourlyPrecipIn,Conditions,Clouds,dailyrainin,SoftwareType,DateUTC
2013-07-05 00:01:00,73.8,66.2,29.97,ESE,123,0.0,0.0,77,-99.99,,,-99.99,WSDL version 423,2013-07-05 05:01:00,
2013-07-05 00:03:00,73.8,66.2,29.97,ESE,113,0.0,0.0,77,-99.99,,,-99.99,WSDL version 423,2013-07-05 05:03:00,
2013-07-05 00:04:00,73.8,66.2,29.97,ESE,113,0.0,0.0,77,-99.99,,,-99.99,WSDL version 423,2013-07-05 05:04:00,
2013-07-05 00:08:00,73.7,66.1,29.97,ENE,60,0.0,0.0,77,-99.99,,,-99.99,WSDL version 423,2013-07-05 05:08:00,
2013-07-05 00:09:00,73.7,66.1,29.97,East,85,0.0,0.0,77,-99.99,,,-99.99,WSDL version 423,2013-07-05 05:09:00,
2013-07-05 00:10:00,73.7,66.0,29.97,East,90,0.0,0.0,77,-99.99,,,-99.99,WSDL version 423,2013-07-05 05:10:00,
2013-07-05 00:11:00,73.7,66.0,29.97,East,90,0.0,0.0,77,-99.99,,,-99.99,WSDL version 423,2013-07-05 05:11:00,
2013-07-05 00:15:00,73.6,65.9,29.97,East,90,0.0,0.0,77,-99.99,,,-99.99,WSDL version 423,2013-07-05 05:15:00,
2013-07-05 00:17:00,73.6,65.9,29.97,East,90,0.0,0.0,77,-99.99,,,-99.99,WSDL version 423,2013-07-05 05:17:00,
2013-07-05 00:18:00,73.6,65.9,29.97,East,90,0.0,0.0,77,-99.99,,,-99.99,WSDL version 423,2013-07-05 05:18:00,
2013-07-05 00:20:00,73.6,65.9,29.97,East,90,0.0,0.0,77,-99.99,,,-99.99,WSDL version 423,2013-07-05 05:20:00,
2013-07-05 00:22:00,73.6,65.9,29.97,East,80,0.0,0.0,77,-99.99,,,-99.99,WSDL version 423,2013-07-05 05:22:00,
2013-07-05 00:23:00,73.6,65.9,29.97,NE,40,0.0,0.0,77,-99.99,,,-99.99,WSDL version 423,2013-07-05 05:23:00,
2013-07-05 00:25:00,73.6,66.0,29.97,NW,315,0.0,0.0,78,-99.99,,,-99.99,WSDL version 423,2013-07-05 05:25:00,
2013-07-05 00:26:00,73.6,66.1,29.97,NW,315,0.0,0.0,78,-99.99,,,-99.99,WSDL version 423,2013-07-05 05:26:00,
2013-07-05 00:29:00,73.6,66.3,29.97,NW,315,0.0,0.0,78,-99.99,,,-99.99,WSDL version 423,2013-07-05 05:29:00,
2013-07-05 00:30:00,73.6,66.3,29.97,NW,315,0.0,0.0,78,-99.99,,,-99.99,WSDL version 423,2013-07-05 05:30:00,
2013-07-05 00:31:00,73.6,66.3,29.97,NW,315,0.0,0.0,78,-99.99,,,-99.99,WSDL version 423,2013-07-05 05:31:00,
2013-07-05 00:32:00,73.6,66.3,29.97,NW,315,0.0,0.0,78,-99.99,,,-99.99,WSDL version 423,2013-07-05 05:32:00,
2013-07-05 00:34:00,73.5,66.2,29.97,NW,315,0.0,0.0,78,-99.99,,,-99.99,WSDL version 423,2013-07-05 05:34:00,
2013-07-05 00:37:00,73.4,66.1,29.97,NW,315,0.0,0.0,78,-99.99,,,-99.99,WSDL version 423,2013-07-05 05:37:00,
2013-07-05 00:39:00,73.4,66.1,29.97,NW,315,0.0,0.0,78,-99.99,,,-99.99,WSDL version 423,2013-07-05 05:39:00,
2013-07-05 00:40:00,73.4,66.1,29.97,NW,315,0.0,0.0,78,-99.99,,,-99.99,WSDL version 423,2013-07-05 05:40:00,
2013-07-05 00:41:00,73.4,66.1,29.97,NW,315,0.0,0.0,78,-99.99,,,-99.99,WSDL version 423,2013-07-05 05:41:00,
2013-07-05 00:43:00,73.4,66.1,29.97,NW,315,0.0,0.0,78,-99.99,,,-99.99,WSDL version 423,2013-07-05 05:43:00,
2013-07-05 00:46:00,73.4,66.2,29.97,NW,315,0.0,0.0,79,-99.99,,,-99.99,WSDL version 423,2013-07-05 05:46:00,
2013-07-05 00:48:00,73.3,66.3,29.97,NW,315,0.0,0.0,79,-99.99,,,-99.99,WSDL version 423,2013-07-05 05:48:00,
2013-07-05 00:50:00,73.3,66.3,29.97,NW,315,0.0,0.0,79,-99.99,,,-99.99,WSDL version 423,2013-07-05 05:50:00,
2013-07-05 00:52:00,73.2,66.2,29.97,NW,315,0.0,0.0,79,-99.99,,,-99.99,WSDL version 423,2013-07-05 05:52:00,
2013-07-05 00:53:00,73.2,66.2,29.97,NW,315,0.0,0.0,79,-99.99,,,-99.99,WSDL version 423,2013-07-05 05:53:00,
2013-07-05 00:54:00,73.2,66.2,29.97,NW,315,0.0,0.0,79,-99.99,,,-99.99,WSDL version 423,2013-07-05 05:54:00,
2013-07-05 00:58:00,73.1,66.1,29.97,NW,315,0.0,0.0,79,-99.99,,,-99.99,WSDL version 423,2013-07-05 05:58:00,
2013-07-05 01:00:00,73.0,66.1,29.97,NW,315,0.0,0.0,79,-99.99,,,-99.99,WSDL version 423,2013-07-05 06:00:00,
2013-07-05 01:01:00,73.0,66.1,29.97,NW,315,0.0,0.0,79,-99.99,,,-99.99,WSDL version 423,2013-07-05 06:01:00,
2013-07-05 01:03:00,73.0,66.2,29.97,NW,315,0.0,0.0,80,-99.99,,,-99.99,WSDL version 423,2013-07-05 06:03:00,
2013-07-05 01:07:00,73.0,66.4,29.97,NW,315,0.0,0.0,80,-99.99,,,-99.99,WSDL version 423,2013-07-05 06:07:00,
2013-07-05 01:08:00,73.0,66.4,29.97,NW,315,0.0,0.0,80,-99.99,,,-99.99,WSDL version 423,2013-07-05 06:08:00,
2013-07-05 01:10:00,73.0,66.4,29.97,NW,315,0.0,0.0,80,-99.99,,,-99.99,WSDL version 423,2013-07-05 06:10:00,
2013-07-05 01:13:00,73.0,66.4,29.97,NW,315,0.0,0.0,80,-99.99,,,-99.99,WSDL version 423,2013-07-05 06:13:00,
2013-07-05 01:14:00,73.0,66.4,29.97,NW,315,0.0,0.0,80,-99.99,,,-99.99,WSDL version 423,2013-07-05 06:14:00,
2013-07-05 01:15:00,73.0,66.4,29.97,NW,315,0.0,0.0,80,-99.99,,,-99.99,WSDL version 423,2013-07-05 06:15:00,
2013-07-05 01:18:00,73.0,66.4,29.97,NW,315,0.0,0.0,80,-99.99,,,-99.99,WSDL version 423,2013-07-05 06:18:00,
2013-07-05 01:19:00,73.0,66.4,29.97,NW,315,0.0,0.0,80,-99.99,,,-99.99,WSDL version 423,2013-07-05 06:19:00,
2013-07-05 01:21:00,73.0,66.5,29.97,NW,315,0.0,0.0,81,-99.99,,,-99.99,WSDL version 423,2013-07-05 06:21:00,
2013-07-05 01:23:00,73.0,66.6,29.97,NW,315,0.0,0.0,81,-99.99,,,-99.99,WSDL version 423,2013-07-05 06:23:00,
2013-07-05 01:24:00,73.0,66.7,29.97,NW,315,0.0,0.0,81,-99.99,,,-99.99,WSDL version 423,2013-07-05 06:24:00,
2013-07-05 01:26:00,73.0,66.8,29.97,NW,315,0.0,0.0,81,-99.99,,,-99.99,WSDL version 423,2013-07-05 06:26:00,
2013-07-05 01:29:00,73.0,66.8,29.97,NW,315,0.0,0.0,81,-99.99,,,-99.99,WSDL version 423,2013-07-05 06:29:00,
2013-07-05 01:31:00,73.0,66.7,29.97,NW,315,0.0,0.0,81,-99.99,,,-99.99,WSDL version 423,2013-07-05 06:31:00,
2013-07-05 01:34:00,72.9,66.7,29.97,NW,315,0.0,0.0,81,-99.99,,,-99.99,WSDL version 423,2013-07-05 06:34:00,
2013-07-05 01:36:00,72.9,66.6,29.97,NW,315,0.0,0.0,81,-99.99,,,-99.99,WSDL version 423,2013-07-05 06:36:00,
2013-07-05 01:37:00,72.9,66.6,29.97,NW,315,0.0,0.0,81,-99.99,,,-99.99,WSDL version 423,2013-07-05 06:37:00,
2013-07-05 01:40:00,72.9,66.7,29.97,NW,315,0.0,0.0,81,-99.99,,,-99.99,WSDL version 423,2013-07-05 06:40:00,
2013-07-05 01:41:00,73.0,66.7,29.97,NW,315,0.0,0.0,81,-99.99,,,-99.99,WSDL version 423,2013-07-05 06:41:00,
2013-07-05 01:45:00,73.0,66.7,29.97,NW,315,0.0,0.0,80,-99.99,,,-99.99,WSDL version 423,2013-07-05 06:45:00,
2013-07-05 01:47:00,73.0,66.6,29.97,NW,315,0.0,0.0,80,-99.99,,,-99.99,WSDL version 423,2013-07-05 06:47:00,
2013-07-05 01:48:00,73.0,66.5,29.97,NW,315,0.0,0.0,80,-99.99,,,-99.99,WSDL version 423,2013-07-05 06:48:00,
2013-07-05 01:49:00,73.0,66.5,29.97,NW,315,0.0,0.0,80,-99.99,,,-99.99,WSDL version 423,2013-07-05 06:49:00,
2013-07-05 01:50:00,73.0,66.5,29.97,NW,315,0.0,0.0,80,-99.99,,,-99.99,WSDL version 423,2013-07-05 06:50:00,
2013-07-05 01:52:00,73.0,66.5,29.97,NW,315,0.0,0.0,80,-99.99,,,-99.99,WSDL version 423,2013-07-05 06:52:00,
2013-07-05 01:54:00,73.0,66.5,29.97,NW,315,0.0,0.0,80,-99.99,,,-99.99,WSDL version 423,2013-07-05 06:54:00,
2013-07-05 01:55:00,73.0,66.5,29.97,NW,315,0.0,0.0,80,-99.99,,,-99.99,WSDL version 423,2013-07-05 06:55:00,
2013-07-05 01:56:00,73.0,66.5,29.97,NW,315,0.0,0.0,80,-99.99,,,-99.99,WSDL version 423,2013-07-05 06:56:00,
2013-07-05 02:01:00,73.0,66.5,29.97,NW,315,0.0,0.0,80,-99.99,,,-99.99,WSDL version 423,2013-07-05 07:01:00,
2013-07-05 02:02:00,73.0,66.5,29.97,NW,315,0.0,0.0,80,-99.99,,,-99.99,WSDL version 423,2013-07-05 07:02:00,
2013-07-05 02:03:00,73.0,66.5,29.97,NW,315,0.0,0.0,80,-99.99,,,-99.99,WSDL version 423,2013-07-05 07:03:00,
2013-07-05 02:04:00,73.0,66.5,29.97,NW,315,0.0,0.0,80,-99.99,,,-99.99,WSDL version 423,2013-07-05 07:04:00,
2013-07-05 02:08:00,72.9,66.4,29.97,NW,315,0.0,0.0,80,-99.99,,,-99.99,WSDL version 423,2013-07-05 07:08:00,
2013-07-05 02:09:00,72.9,66.3,29.97,NW,315,0.0,0.0,80,-99.99,,,-99.99,WSDL version 423,2013-07-05 07:09:00,
2013-07-05 02:10:00,72.8,66.3,29.97,NW,315,0.0,0.0,80,-99.99,,,-99.99,WSDL version 423,2013-07-05 07:10:00,
2013-07-05 02:11:00,72.8,66.3,29.97,NW,315,0.0,0.0,80,-99.99,,,-99.99,WSDL version 423,2013-07-05 07:11:00,
2013-07-05 02:12:00,72.8,66.3,29.97,NW,315,0.0,0.0,80,-99.99,,,-99.99,WSDL version 423,2013-07-05 07:12:00,
2013-07-05 02:13:00,72.8,66.3,29.97,NW,315,0.0,0.0,80,-99.99,,,-99.99,WSDL version 423,2013-07-05 07:13:00,
2013-07-05 02:16:00,72.8,66.3,29.97,NW,315,0.0,0.0,80,-99.99,,,-99.99,WSDL version 423,2013-07-05 07:16:00,
2013-07-05 02:17:00,72.8,66.3,29.97,NW,315,0.0,0.0,80,-99.99,,,-99.99,WSDL version 423,2013-07-05 07:17:00,
2013-07-05 02:18:00,72.8,66.3,29.97,NW,315,0.0,0.0,80,-99.99,,,-99.99,WSDL version 423,2013-07-05 07:18:00,
2013-07-05 02:20:00,72.8,66.3,29.97,NW,315,0.0,0.0,80,-99.99,,,-99.99,WSDL version 423,2013-07-05 07:20:00,
2013-07-05 02:23:00,72.8,66.3,29.97,NW,315,0.0,0.0,80,-99.99,,,-99.99,WSDL version 423,2013-07-05 07:23:00,
2013-07-05 02:26:00,72.8,66.3,29.97,NW,315,0.0,0.0,80,-99.99,,,-99.99,WSDL version 423,2013-07-05 07:26:00,
2013-07-05 02:27:00,72.8,66.3,29.97,NW,315,0.0,0.0,80,-99.99,,,-99.99,WSDL version 423,2013-07-05 07:27:00,
2013-07-05 02:28:00,72.8,66.3,29.97,NW,315,0.0,0.0,80,-99.99,,,-99.99,WSDL version 423,2013-07-05 07:28:00,
2013-07-05 02:31:00,72.8,66.3,29.97,NW,315,0.0,0.0,80,-99.99,,,-99.99,WSDL version 423,2013-07-05 07:31:00,
2013-07-05 02:33:00,72.8,66.3,29.97,NW,315,0.0,0.0,80,-99.99,,,-99.99,WSDL version 423,2013-07-05 07:33:00,
2013-07-05 02:34:00,72.8,66.3,29.97,NW,315,0.0,0.0,80,-99.99,,,-99.99,WSDL version 423,2013-07-05 07:34:00,
2013-07-05 02:36:00,72.8,66.3,29.97,NW,315,0.0,0.0,80,-99.99,,,-99.99,WSDL version 423,2013-07-05 07:36:00,
2013-07-05 02:37:00,72.8,66.3,29.97,NW,315,0.0,0.0,80,-99.99,,,-99.99,WSDL version 423,2013-07-05 07:37:00,
2013-07-05 02:40:00,72.8,66.3,29.97,NW,315,0.0,0.0,80,-99.99,,,-99.99,WSDL version 423,2013-07-05 07:40:00,
2013-07-05 02:42:00,72.8,66.3,29.97,NW,315,0.0,0.0,80,-99.99,,,-99.99,WSDL version 423,2013-07-05 07:42:00,
2013-07-05 02:46:00,72.8,66.3,29.97,NW,315,0.0,0.0,80,-99.99,,,-99.99,WSDL version 423,2013-07-05 07:46:00,
2013-07-05 02:47:00,72.8,66.3,29.97,NW,315,0.0,0.0,80,-99.99,,,-99.99,WSDL version 423,2013-07-05 07:47:00,
2013-07-05 02:48:00,72.8,66.3,29.97,NW,315,0.0,0.0,80,-99.99,,,-99.99,WSDL version 423,2013-07-05 07:48:00,
2013-07-05 02:50:00,72.8,66.2,29.97,NW,315,0.0,0.0,80,-99.99,,,-99.99,WSDL version 423,2013-07-05 07:50:00,
2013-07-05 02:53:00,72.7,66.1,29.97,NW,315,0.0,0.0,80,-99.99,,,-99.99,WSDL version 423,2013-07-05 07:53:00,
2013-07-05 02:55:00,72.7,66.3,29.97,NW,315,0.0,0.0,81,-99.99,,,-99.99,WSDL version 423,2013-07-05 07:55:00,
2013-07-05 02:56:00,72.7,66.4,29.97,NW,315,0.0,0.0,81,-99.99,,,-99.99,WSDL version 423,2013-07-05 07:56:00,
2013-07-05 02:58:00,72.7,66.5,29.97,North,360,0.0,0.0,81,-99.99,,,-99.99,WSDL version 423,2013-07-05 07:58:00,
2013-07-05 02:59:00,72.7,66.5,29.97,NE,45,0.0,0.0,81,-99.99,,,-99.99,WSDL version 423,2013-07-05 07:59:00,
2013-07-05 03:01:00,72.7,66.5,29.97,NE,45,0.0,0.0,81,-99.99,,,-99.99,WSDL version 423,2013-07-05 08:01:00,
2013-07-05 03:02:00,72.7,66.5,29.97,NE,48,0.0,0.0,81,-99.99,,,-99.99,WSDL version 423,2013-07-05 08:02:00,
2013-07-05 03:03:00,72.7,66.5,29.97,ENE,60,0.0,0.0,81,-99.99,,,-99.99,WSDL version 423,2013-07-05 08:03:00,
2013-07-05 03:06:00,72.7,66.5,29.97,ENE,68,0.0,0.0,81,-99.99,,,-99.99,WSDL version 423,2013-07-05 08:06:00,
2013-07-05 03:07:00,72.7,66.5,29.97,East,83,0.0,0.0,81,-99.99,,,-99.99,WSDL version 423,2013-07-05 08:07:00,
2013-07-05 03:10:00,72.7,66.5,29.97,SSE,148,0.0,0.0,81,-99.99,,,-99.99,WSDL version 423,2013-07-05 08:10:00,
2013-07-05 03:11:00,72.7,66.5,29.97,ESE,120,0.0,0.0,81,-99.99,,,-99.99,WSDL version 423,2013-07-05 08:11:00,
2013-07-05 03:12:00,72.7,66.5,29.97,ESE,113,0.0,0.0,81,-99.99,,,-99.99,WSDL version 423,2013-07-05 08:12:00,
2013-07-05 03:14:00,72.6,66.5,29.97,ESE,105,0.0,0.0,81,-99.99,,,-99.99,WSDL version 423,2013-07-05 08:14:00,
2013-07-05 03:16:00,72.5,66.4,29.97,East,90,0.0,0.0,81,-99.99,,,-99.99,WSDL version 423,2013-07-05 08:16:00,
2013-07-05 03:19:00,72.5,66.4,29.97,East,90,0.0,0.0,81,-99.99,,,-99.99,WSDL version 423,2013-07-05 08:19:00,
2013-07-05 03:21:00,72.5,66.4,29.97,East,90,0.0,0.0,81,-99.99,,,-99.99,WSDL version 423,2013-07-05 08:21:00,
2013-07-05 03:22:00,72.5,66.4,29.97,East,90,0.0,0.0,81,-99.99,,,-99.99,WSDL version 423,2013-07-05 08:22:00,
2013-07-05 03:23:00,72.5,66.4,29.97,East,90,0.0,0.0,81,-99.99,,,-99.99,WSDL version 423,2013-07-05 08:23:00,
2013-07-05 03:24:00,72.5,66.4,29.97,East,90,0.0,0.0,81,-99.99,,,-99.99,WSDL version 423,2013-07-05 08:24:00,
2013-07-05 03:25:00,72.5,66.4,29.97,East,90,0.0,0.0,81,-99.99,,,-99.99,WSDL version 423,2013-07-05 08:25:00,
2013-07-05 03:30:00,72.5,66.4,29.97,East,90,0.0,0.0,81,-99.99,,,-99.99,WSDL version 423,2013-07-05 08:30:00,
2013-07-05 03:31:00,72.5,66.4,29.97,East,90,0.0,0.0,81,-99.99,,,-99.99,WSDL version 423,2013-07-05 08:31:00,
2013-07-05 03:32:00,72.5,66.4,29.97,East,90,0.0,0.0,81,-99.99,,,-99.99,WSDL version 423,2013-07-05 08:32:00,
2013-07-05 03:33:00,72.5,66.4,29.97,East,90,0.0,0.0,81,-99.99,,,-99.99,WSDL version 423,2013-07-05 08:33:00,
2013-07-05 03:36:00,72.5,66.4,29.97,East,90,0.0,0.0,81,-99.99,,,-99.99,WSDL version 423,2013-07-05 08:36:00,
2013-07-05 03:38:00,72.5,66.4,29.97,East,90,0.0,0.0,81,-99.99,,,-99.99,WSDL version 423,2013-07-05 08:38:00,
2013-07-05 03:40:00,72.5,66.4,29.97,East,90,0.0,0.0,81,-99.99,,,-99.99,WSDL version 423,2013-07-05 08:40:00,
2013-07-05 03:42:00,72.5,66.3,29.97,East,90,0.0,0.0,81,-99.99,,,-99.99,WSDL version 423,2013-07-05 08:42:00,
2013-07-05 03:45:00,72.4,66.2,29.94,East,90,0.0,0.0,81,-99.99,,,-99.99,WSDL version 423,2013-07-05 08:45:00,
2013-07-05 03:46:00,72.3,66.2,29.94,East,90,0.0,0.0,81,-99.99,,,-99.99,WSDL version 423,2013-07-05 08:46:00,
2013-07-05 03:47:00,72.3,66.3,29.94,East,90,0.0,0.0,82,-99.99,,,-99.99,WSDL version 423,2013-07-05 08:47:00,
2013-07-05 03:49:00,72.3,66.4,29.94,East,90,0.0,0.0,82,-99.99,,,-99.99,WSDL version 423,2013-07-05 08:49:00,
2013-07-05 03:50:00,72.3,66.4,29.94,East,90,0.0,0.0,82,-99.99,,,-99.99,WSDL version 423,2013-07-05 08:50:00,
2013-07-05 03:52:00,72.3,66.5,29.94,East,90,0.0,0.0,82,-99.99,,,-99.99,WSDL version 423,2013-07-05 08:52:00,
2013-07-05 03:53:00,72.3,66.5,29.94,East,90,0.0,0.0,82,-99.99,,,-99.99,WSDL version 423,2013-07-05 08:53:00,
2013-07-05 03:55:00,72.3,66.6,29.94,East,90,0.0,0.0,82,-99.99,,,-99.99,WSDL version 423,2013-07-05 08:55:00,
2013-07-05 03:56:00,72.3,66.5,29.94,East,90,0.0,0.0,82,-99.99,,,-99.99,WSDL version 423,2013-07-05 08:56:00,
2013-07-05 03:59:00,72.2,66.5,29.94,East,90,0.0,0.0,82,-99.99,,,-99.99,WSDL version 423,2013-07-05 08:59:00,
2013-07-05 04:02:00,72.2,66.4,29.94,East,90,0.0,0.0,82,-99.99,,,-99.99,WSDL version 423,2013-07-05 09:02:00,
2013-07-05 04:04:00,72.1,66.4,29.94,East,90,0.0,0.0,82,-99.99,,,-99.99,WSDL version 423,2013-07-05 09:04:00,
2013-07-05 04:07:00,72.1,66.5,29.94,East,90,0.0,0.0,82,-99.99,,,-99.99,WSDL version 423,2013-07-05 09:07:00,
2013-07-05 04:08:00,72.1,66.5,29.94,East,90,0.0,0.0,83,-99.99,,,-99.99,WSDL version 423,2013-07-05 09:08:00,
2013-07-05 04:13:00,72.1,66.8,29.94,East,90,0.0,0.0,83,-99.99,,,-99.99,WSDL version 423,2013-07-05 09:13:00,
2013-07-05 04:14:00,72.1,66.8,29.94,East,90,0.0,0.0,83,-99.99,,,-99.99,WSDL version 423,2013-07-05 09:14:00,
2013-07-05 04:15:00,72.1,66.8,29.94,East,90,0.0,0.0,83,-99.99,,,-99.99,WSDL version 423,2013-07-05 09:15:00,
2013-07-05 04:16:00,72.1,66.8,29.94,East,90,0.0,0.0,83,-99.99,,,-99.99,WSDL version 423,2013-07-05 09:16:00,
2013-07-05 04:22:00,72.1,66.8,29.94,East,90,0.0,0.0,83,-99.99,,,-99.99,WSDL version 423,2013-07-05 09:22:00,
2013-07-05 04:23:00,72.1,66.8,29.94,East,90,0.0,0.0,83,-99.99,,,-99.99,WSDL version 423,2013-07-05 09:23:00,
2013-07-05 04:25:00,72.1,66.8,29.94,East,90,0.0,0.0,83,-99.99,,,-99.99,WSDL version 423,2013-07-05 09:25:00,
2013-07-05 04:26:00,72.1,66.8,29.94,East,90,0.0,0.0,83,-99.99,,,-99.99,WSDL version 423,2013-07-05 09:26:00,
2013-07-05 04:30:00,72.1,66.8,29.94,East,90,0.0,0.0,83,-99.99,,,-99.99,WSDL version 423,2013-07-05 09:30:00,
2013-07-05 04:32:00,72.1,66.8,29.94,East,90,0.0,0.0,83,-99.99,,,-99.99,WSDL version 423,2013-07-05 09:32:00,
2013-07-05 04:34:00,72.1,66.8,29.94,East,90,0.0,0.0,83,-99.99,,,-99.99,WSDL version 423,2013-07-05 09:34:00,
2013-07-05 04:36:00,72.1,66.8,29.94,East,90,0.0,0.0,83,-99.99,,,-99.99,WSDL version 423,2013-07-05 09:36:00,
2013-07-05 04:37:00,72.1,66.9,29.94,East,90,0.0,0.0,84,-99.99,,,-99.99,WSDL version 423,2013-07-05 09:37:00,
2013-07-05 04:39:00,72.1,67.0,29.94,East,90,0.0,0.0,84,-99.99,,,-99.99,WSDL version 423,2013-07-05 09:39:00,
2013-07-05 04:42:00,72.1,67.2,29.94,East,90,0.0,0.0,84,-99.99,,,-99.99,WSDL version 423,2013-07-05 09:42:00,
2013-07-05 04:43:00,72.1,67.2,29.94,East,90,0.0,0.0,84,-99.99,,,-99.99,WSDL version 423,2013-07-05 09:43:00,
2013-07-05 04:45:00,72.1,67.2,29.97,East,90,0.0,0.0,84,-99.99,,,-99.99,WSDL version 423,2013-07-05 09:45:00,
2013-07-05 04:47:00,72.1,67.2,29.97,East,90,0.0,0.0,84,-99.99,,,-99.99,WSDL version 423,2013-07-05 09:47:00,
2013-07-05 04:50:00,72.1,67.2,29.97,East,90,0.0,0.0,84,-99.99,,,-99.99,WSDL version 423,2013-07-05 09:50:00,
2013-07-05 04:54:00,72.2,67.1,29.97,East,90,0.0,0.0,83,-99.99,,,-99.99,WSDL version 423,2013-07-05 09:54:00,
2013-07-05 04:55:00,72.2,67.1,29.97,East,90,0.0,0.0,83,-99.99,,,-99.99,WSDL version 423,2013-07-05 09:55:00,
2013-07-05 04:57:00,72.2,67.0,29.97,East,90,0.0,0.0,84,-99.99,,,-99.99,WSDL version 423,2013-07-05 09:57:00,
2013-07-05 05:01:00,72.2,67.1,29.97,East,90,0.0,0.0,83,-99.99,,,-99.99,WSDL version 423,2013-07-05 10:01:00,
2013-07-05 05:02:00,72.1,67.0,29.97,East,90,0.0,0.0,83,-99.99,,,-99.99,WSDL version 423,2013-07-05 10:02:00,
2013-07-05 05:04:00,72.1,66.9,29.97,East,90,0.0,0.0,83,-99.99,,,-99.99,WSDL version 423,2013-07-05 10:04:00,
2013-07-05 05:05:00,72.1,66.8,29.97,East,90,0.0,0.0,83,-99.99,,,-99.99,WSDL version 423,2013-07-05 10:05:00,
2013-07-05 05:08:00,72.1,66.8,29.97,East,90,0.0,0.0,83,-99.99,,,-99.99,WSDL version 423,2013-07-05 10:08:00,
2013-07-05 05:09:00,72.1,66.8,29.97,East,90,0.0,0.0,83,-99.99,,,-99.99,WSDL version 423,2013-07-05 10:09:00,
2013-07-05 05:10:00,72.1,66.8,29.97,East,90,0.0,0.0,83,-99.99,,,-99.99,WSDL version 423,2013-07-05 10:10:00,
2013-07-05 05:11:00,72.1,66.9,29.97,East,90,0.0,0.0,84,-99.99,,,-99.99,WSDL version 423,2013-07-05 10:11:00,
2013-07-05 05:14:00,72.1,67.1,29.97,East,90,0.0,0.0,84,-99.99,,,-99.99,WSDL version 423,2013-07-05 10:14:00,
2013-07-05 05:16:00,72.1,67.2,29.97,East,90,0.0,0.0,84,-99.99,,,-99.99,WSDL version 423,2013-07-05 10:16:00,
2013-07-05 05:17:00,72.1,67.2,29.97,East,90,0.0,0.0,84,-99.99,,,-99.99,WSDL version 423,2013-07-05 10:17:00,
2013-07-05 05:21:00,72.1,67.2,29.97,East,90,0.0,0.0,84,-99.99,,,-99.99,WSDL version 423,2013-07-05 10:21:00,
2013-07-05 05:22:00,72.1,67.2,29.97,East,90,0.0,0.0,84,-99.99,,,-99.99,WSDL version 423,2013-07-05 10:22:00,
2013-07-05 05:23:00,72.1,67.2,29.97,East,90,0.0,0.0,84,-99.99,,,-99.99,WSDL version 423,2013-07-05 10:23:00,
2013-07-05 05:27:00,72.1,67.3,29.97,East,90,0.0,0.0,84,-99.99,,,-99.99,WSDL version 423,2013-07-05 10:27:00,
2013-07-05 05:28:00,72.1,67.3,29.97,East,90,0.0,0.0,84,-99.99,,,-99.99,WSDL version 423,2013-07-05 10:28:00,
2013-07-05 05:31:00,72.1,67.3,29.97,East,90,0.0,0.0,86,-99.99,,,-99.99,WSDL version 423,2013-07-05 10:31:00,
2013-07-05 05:32:00,72.1,67.4,29.97,East,90,0.0,0.0,86,-99.99,,,-99.99,WSDL version 423,2013-07-05 10:32:00,
2013-07-05 05:34:00,72.1,67.6,29.97,East,90,0.0,0.0,86,-99.99,,,-99.99,WSDL version 423,2013-07-05 10:34:00,
2013-07-05 05:35:00,72.1,67.6,29.97,East,90,0.0,0.0,86,-99.99,,,-99.99,WSDL version 423,2013-07-05 10:35:00,
2013-07-05 05:36:00,72.1,67.6,29.97,East,90,0.0,0.0,86,-99.99,,,-99.99,WSDL version 423,2013-07-05 10:36:00,
2013-07-05 05:40:00,72.1,67.4,29.97,East,90,0.0,0.0,86,-99.99,,,-99.99,WSDL version 423,2013-07-05 10:40:00,
2013-07-05 05:41:00,72.1,67.4,29.97,East,90,0.0,0.0,86,-99.99,,,-99.99,WSDL version 423,2013-07-05 10:41:00,
2013-07-05 05:42:00,72.1,67.4,29.97,East,90,0.0,0.0,86,-99.99,,,-99.99,WSDL version 423,2013-07-05 10:42:00,
2013-07-05 05:45:00,72.1,67.6,29.97,East,90,0.0,0.0,86,-99.99,,,-99.99,WSDL version 423,2013-07-05 10:45:00,
2013-07-05 05:47:00,72.1,67.6,29.97,East,90,0.0,0.0,86,-99.99,,,-99.99,WSDL version 423,2013-07-05 10:47:00,
2013-07-05 05:49:00,72.1,67.6,29.97,East,90,0.0,0.0,86,-99.99,,,-99.99,WSDL version 423,2013-07-05 10:49:00,
2013-07-05 05:53:00,72.2,67.6,29.97,ENE,68,0.0,0.0,86,-99.99,,,-99.99,WSDL version 423,2013-07-05 10:53:00,
2013-07-05 05:55:00,72.2,67.6,29.97,ENE,68,0.0,0.0,86,-99.99,,,-99.99,WSDL version 423,2013-07-05 10:55:00,
2013-07-05 05:56:00,72.2,67.6,29.97,ENE,68,0.0,0.0,86,-99.99,,,-99.99,WSDL version 423,2013-07-05 10:56:00,
2013-07-05 05:57:00,72.1,67.6,29.97,ENE,68,0.0,0.0,86,-99.99,,,-99.99,WSDL version 423,2013-07-05 10:57:00,
2013-07-05 05:58:00,72.1,67.6,29.97,ENE,68,0.0,0.0,86,-99.99,,,-99.99,WSDL version 423,2013-07-05 10:58:00,
2013-07-05 06:01:00,72.2,67.6,29.97,ENE,68,0.0,0.0,86,-99.99,,,-99.99,WSDL version 423,2013-07-05 11:01:00,
2013-07-05 06:02:00,72.3,67.6,29.97,ENE,68,0.0,0.0,86,-99.99,,,-99.99,WSDL version 423,2013-07-05 11:02:00,
2013-07-05 06:05:00,72.3,67.7,29.97,ENE,68,0.0,0.0,86,-99.99,,,-99.99,WSDL version 423,2013-07-05 11:05:00,
2013-07-05 06:06:00,72.3,67.7,29.97,ENE,68,0.0,0.0,84,-99.99,,,-99.99,WSDL version 423,2013-07-05 11:06:00,
2013-07-05 06:08:00,72.3,67.5,29.97,ENE,68,0.0,0.0,84,-99.99,,,-99.99,WSDL version 423,2013-07-05 11:08:00,
2013-07-05 06:10:00,72.3,67.3,29.97,ENE,68,0.0,0.0,84,-99.99,,,-99.99,WSDL version 423,2013-07-05 11:10:00,
2013-07-05 06:11:00,72.3,67.3,29.97,ENE,68,0.0,0.0,84,-99.99,,,-99.99,WSDL version 423,2013-07-05 11:11:00,
2013-07-05 06:15:00,72.3,67.3,29.97,ENE,68,0.0,0.0,84,-99.99,,,-99.99,WSDL version 423,2013-07-05 11:15:00,
2013-07-05 06:17:00,72.3,67.3,29.97,ENE,68,0.0,0.0,84,-99.99,,,-99.99,WSDL version 423,2013-07-05 11:17:00,
2013-07-05 06:20:00,72.3,67.3,29.97,NE,48,0.0,0.0,84,-99.99,,,-99.99,WSDL version 423,2013-07-05 11:20:00,
2013-07-05 06:21:00,72.3,67.3,29.97,NE,45,0.0,0.0,84,-99.99,,,-99.99,WSDL version 423,2013-07-05 11:21:00,
2013-07-05 06:22:00,72.3,67.3,29.97,NE,45,0.0,0.0,84,-99.99,,,-99.99,WSDL version 423,2013-07-05 11:22:00,
2013-07-05 06:26:00,72.3,67.3,29.97,NE,45,0.0,0.0,84,-99.99,,,-99.99,WSDL version 423,2013-07-05 11:26:00,
2013-07-05 06:29:00,72.3,67.3,29.97,NE,45,0.0,0.0,84,-99.99,,,-99.99,WSDL version 423,2013-07-05 11:29:00,
2013-07-05 06:31:00,72.3,67.3,30.00,NE,45,0.0,0.0,84,-99.99,,,-99.99,WSDL version 423,2013-07-05 11:31:00,
2013-07-05 06:33:00,72.3,67.4,30.00,NE,45,0.0,0.0,84,-99.99,,,-99.99,WSDL version 423,2013-07-05 11:33:00,
2013-07-05 06:34:00,72.4,67.4,30.00,NE,45,0.0,0.0,84,-99.99,,,-99.99,WSDL version 423,2013-07-05 11:34:00,
2013-07-05 06:38:00,72.5,67.5,30.00,NE,45,0.0,0.0,84,-99.99,,,-99.99,WSDL version 423,2013-07-05 11:38:00,
2013-07-05 06:39:00,72.5,67.5,30.00,NE,45,0.0,0.0,84,-99.99,,,-99.99,WSDL version 423,2013-07-05 11:39:00,
2013-07-05 06:41:00,72.5,67.5,30.00,NE,45,0.0,0.0,84,-99.99,,,-99.99,WSDL version 423,2013-07-05 11:41:00,
2013-07-05 06:44:00,72.5,67.5,30.00,NE,45,0.0,0.0,84,-99.99,,,-99.99,WSDL version 423,2013-07-05 11:44:00,
2013-07-05 06:47:00,72.5,67.5,30.00,NE,45,0.0,0.0,84,-99.99,,,-99.99,WSDL version 423,2013-07-05 11:47:00,
2013-07-05 06:49:00,72.5,67.5,30.00,NE,45,0.0,0.0,84,-99.99,,,-99.99,WSDL version 423,2013-07-05 11:49:00,
2013-07-05 06:50:00,72.5,67.5,30.00,NE,45,0.0,0.0,84,-99.99,,,-99.99,WSDL version 423,2013-07-05 11:50:00,
2013-07-05 06:51:00,72.5,67.5,30.00,NE,45,0.0,0.0,84,-99.99,,,-99.99,WSDL version 423,2013-07-05 11:51:00,
2013-07-05 06:56:00,72.5,67.5,30.00,NE,45,0.0,0.0,84,-99.99,,,-99.99,WSDL version 423,2013-07-05 11:56:00,
2013-07-05 06:58:00,72.5,67.5,30.00,NE,45,0.0,0.0,84,-99.99,,,-99.99,WSDL version 423,2013-07-05 11:58:00,
2013-07-05 07:00:00,72.5,67.6,30.00,NE,45,0.0,0.0,84,-99.99,,,-99.99,WSDL version 423,2013-07-05 12:00:00,
2013-07-05 07:02:00,72.6,67.6,30.00,NE,45,0.0,0.0,84,-99.99,,,-99.99,WSDL version 423,2013-07-05 12:02:00,
2013-07-05 07:07:00,72.7,68.1,30.00,NE,45,0.0,0.0,86,-99.99,,,-99.99,WSDL version 423,2013-07-05 12:07:00,
2013-07-05 07:08:00,72.7,68.1,30.00,NE,45,0.0,0.0,86,-99.99,,,-99.99,WSDL version 423,2013-07-05 12:08:00,
2013-07-05 07:12:00,72.7,68.1,30.00,NE,45,0.0,0.0,86,-99.99,,,-99.99,WSDL version 423,2013-07-05 12:12:00,
2013-07-05 07:13:00,72.7,68.1,30.00,NE,45,0.0,0.0,86,-99.99,,,-99.99,WSDL version 423,2013-07-05 12:13:00,
2013-07-05 07:14:00,72.7,68.1,30.00,NE,45,0.0,0.0,86,-99.99,,,-99.99,WSDL version 423,2013-07-05 12:14:00,
2013-07-05 07:17:00,72.7,68.1,30.00,NE,45,0.0,0.0,86,-99.99,,,-99.99,WSDL version 423,2013-07-05 12:17:00,
2013-07-05 07:18:00,72.7,68.1,30.00,NE,45,0.0,0.0,86,-99.99,,,-99.99,WSDL version 423,2013-07-05 12:18:00,
2013-07-05 07:19:00,72.7,68.1,30.00,NE,45,0.0,0.0,86,-99.99,,,-99.99,WSDL version 423,2013-07-05 12:19:00,
2013-07-05 07:20:00,72.7,68.1,30.00,NE,45,0.0,0.0,86,-99.99,,,-99.99,WSDL version 423,2013-07-05 12:20:00,
2013-07-05 07:24:00,72.8,68.3,30.00,NE,45,0.0,0.0,86,-99.99,,,-99.99,WSDL version 423,2013-07-05 12:24:00,
2013-07-05 07:25:00,72.8,68.3,30.00,NE,45,0.0,0.0,86,-99.99,,,-99.99,WSDL version 423,2013-07-05 12:25:00,
2013-07-05 07:31:00,72.8,68.1,30.00,NE,45,0.0,0.0,86,-99.99,,,-99.99,WSDL version 423,2013-07-05 12:31:00,
2013-07-05 07:33:00,72.8,68.2,30.00,NE,45,0.0,0.0,86,-99.99,,,-99.99,WSDL version 423,2013-07-05 12:33:00,
2013-07-05 07:34:00,72.8,68.3,30.00,NE,45,0.0,0.0,86,-99.99,,,-99.99,WSDL version 423,2013-07-05 12:34:00,
2013-07-05 07:37:00,72.8,68.0,30.00,NE,45,0.0,0.0,84,-99.99,,,-99.99,WSDL version 423,2013-07-05 12:37:00,
2013-07-05 07:38:00,72.8,67.9,30.00,NE,45,0.0,0.0,84,-99.99,,,-99.99,WSDL version 423,2013-07-05 12:38:00,
2013-07-05 07:40:00,72.8,67.9,30.00,NE,45,0.0,0.0,84,-99.99,,,-99.99,WSDL version 423,2013-07-05 12:40:00,
2013-07-05 07:42:00,72.9,68.0,30.00,NE,45,0.0,0.0,84,-99.99,,,-99.99,WSDL version 423,2013-07-05 12:42:00,
2013-07-05 07:43:00,72.9,68.0,30.00,NE,45,0.0,0.0,84,-99.99,,,-99.99,WSDL version 423,2013-07-05 12:43:00,
2013-07-05 07:46:00,73.0,68.2,30.00,NE,45,0.0,0.0,86,-99.99,,,-99.99,WSDL version 423,2013-07-05 12:46:00,
2013-07-05 07:49:00,73.0,68.4,30.00,NE,45,0.0,0.0,86,-99.99,,,-99.99,WSDL version 423,2013-07-05 12:49:00,
2013-07-05 07:54:00,73.2,68.5,30.00,NE,45,0.0,0.0,84,-99.99,,,-99.99,WSDL version 423,2013-07-05 12:54:00,
2013-07-05 07:56:00,73.2,68.4,30.00,NE,45,0.0,0.0,84,-99.99,,,-99.99,WSDL version 423,2013-07-05 12:56:00,
2013-07-05 07:57:00,73.3,68.4,30.00,NE,45,0.0,0.0,84,-99.99,,,-99.99,WSDL version 423,2013-07-05 12:57:00,
2013-07-05 07:59:00,73.4,68.4,30.00,NE,45,0.0,0.0,85,-99.99,,,-99.99,WSDL version 423,2013-07-05 12:59:00,
2013-07-05 08:00:00,73.4,68.5,30.00,NE,45,0.0,0.0,84,-99.99,,,-99.99,WSDL version 423,2013-07-05 13:00:00,
2013-07-05 08:05:00,73.4,68.4,30.00,NE,45,0.0,0.0,84,-99.99,,,-99.99,WSDL version 423,2013-07-05 13:05:00,
2013-07-05 08:07:00,73.5,68.3,30.00,NE,45,0.0,0.0,83,-99.99,,,-99.99,WSDL version 423,2013-07-05 13:07:00,
2013-07-05 08:10:00,73.6,68.2,30.00,NE,45,0.0,0.0,83,-99.99,,,-99.99,WSDL version 423,2013-07-05 13:10:00,
2013-07-05 08:13:00,73.6,68.2,30.00,NE,45,0.0,0.0,83,-99.99,,,-99.99,WSDL version 423,2013-07-05 13:13:00,
2013-07-05 08:14:00,73.7,68.3,30.00,NE,45,0.0,0.0,83,-99.99,,,-99.99,WSDL version 423,2013-07-05 13:14:00,
2013-07-05 08:15:00,73.7,68.3,30.03,NE,45,0.0,0.0,83,-99.99,,,-99.99,WSDL version 423,2013-07-05 13:15:00,
2013-07-05 08:20:00,73.8,68.4,30.03,NE,45,0.0,0.0,83,-99.99,,,-99.99,WSDL version 423,2013-07-05 13:20:00,
2013-07-05 08:24:00,73.9,68.3,30.03,NE,45,0.0,0.0,82,-99.99,,,-99.99,WSDL version 423,2013-07-05 13:24:00,
2013-07-05 08:25:00,73.9,68.2,30.03,ENE,75,0.0,0.0,82,-99.99,,,-99.99,WSDL version 423,2013-07-05 13:25:00,
2013-07-05 08:27:00,73.9,68.0,30.03,East,101,0.0,0.0,81,-99.99,,,-99.99,WSDL version 423,2013-07-05 13:27:00,
2013-07-05 08:29:00,73.9,67.8,30.03,East,90,0.0,0.0,81,-99.99,,,-99.99,WSDL version 423,2013-07-05 13:29:00,
2013-07-05 08:30:00,73.9,67.8,30.03,East,90,0.0,0.0,81,-99.99,,,-99.99,WSDL version 423,2013-07-05 13:30:00,
2013-07-05 08:35:00,74.1,67.9,30.03,East,90,0.0,0.0,81,-99.99,,,-99.99,WSDL version 423,2013-07-05 13:35:00,
2013-07-05 08:37:00,74.2,68.0,30.03,South,188,0.0,0.0,81,-99.99,,,-99.99,WSDL version 423,2013-07-05 13:37:00,
2013-07-05 08:38:00,74.2,68.0,30.03,SSW,203,0.0,0.0,80,-99.99,,,-99.99,WSDL version 423,2013-07-05 13:38:00,
2013-07-05 08:39:00,74.2,67.9,30.03,SSW,203,0.0,0.0,80,-99.99,,,-99.99,WSDL version 423,2013-07-05 13:39:00,
2013-07-05 08:40:00,74.3,67.9,30.03,South,188,0.0,0.0,80,-99.99,,,-99.99,WSDL version 423,2013-07-05 13:40:00,
2013-07-05 08:44:00,74.4,67.8,30.03,SE,135,0.0,0.0,80,-99.99,,,-99.99,WSDL version 423,2013-07-05 13:44:00,
2013-07-05 08:45:00,74.5,67.9,30.03,SE,135,0.0,0.0,80,-99.99,,,-99.99,WSDL version 423,2013-07-05 13:45:00,
2013-07-05 08:46:00,74.5,67.9,30.03,SE,135,0.0,0.0,80,-99.99,,,-99.99,WSDL version 423,2013-07-05 13:46:00,
2013-07-05 08:48:00,74.6,68.0,30.03,SSE,160,0.0,0.0,80,-99.99,,,-99.99,WSDL version 423,2013-07-05 13:48:00,
2013-07-05 08:51:00,74.8,68.3,30.03,SSE,158,0.0,0.0,81,-99.99,,,-99.99,WSDL version 423,2013-07-05 13:51:00,
2013-07-05 08:52:00,74.9,68.4,30.03,SSE,158,0.0,0.0,81,-99.99,,,-99.99,WSDL version 423,2013-07-05 13:52:00,
2013-07-05 08:53:00,74.9,68.5,30.03,SSE,158,0.0,0.0,81,-99.99,,,-99.99,WSDL version 423,2013-07-05 13:53:00,
2013-07-05 08:59:00,75.2,68.5,30.03,SSE,158,0.0,0.0,80,-99.99,,,-99.99,WSDL version 423,2013-07-05 13:59:00,
2013-07-05 09:00:00,75.2,68.6,30.03,SSE,158,0.0,0.0,80,-99.99,,,-99.99,WSDL version 423,2013-07-05 14:00:00,
2013-07-05 09:03:00,75.3,68.5,30.03,SSE,158,0.0,0.0,79,-99.99,,,-99.99,WSDL version 423,2013-07-05 14:03:00,
2013-07-05 09:04:00,75.4,68.4,30.03,SSE,158,0.0,0.0,79,-99.99,,,-99.99,WSDL version 423,2013-07-05 14:04:00,
2013-07-05 09:06:00,75.5,68.4,30.03,SSE,158,0.0,0.0,79,-99.99,,,-99.99,WSDL version 423,2013-07-05 14:06:00,
2013-07-05 09:07:00,75.5,68.5,30.03,SSE,158,0.0,0.0,79,-99.99,,,-99.99,WSDL version 423,2013-07-05 14:07:00,
2013-07-05 09:11:00,75.6,68.4,30.03,SSE,158,0.0,0.0,78,-99.99,,,-99.99,WSDL version 423,2013-07-05 14:11:00,
2013-07-05 09:13:00,75.8,68.3,30.03,SSE,158,0.0,0.0,77,-99.99,,,-99.99,WSDL version 423,2013-07-05 14:13:00,
2013-07-05 09:15:00,75.9,68.2,30.03,SSE,158,0.0,0.0,77,-99.99,,,-99.99,WSDL version 423,2013-07-05 14:15:00,
2013-07-05 09:16:00,75.9,68.2,30.03,SSE,158,0.0,0.0,76,-99.99,,,-99.99,WSDL version 423,2013-07-05 14:16:00,
2013-07-05 09:19:00,76.1,68.1,30.03,ESE,113,0.0,0.0,76,-99.99,,,-99.99,WSDL version 423,2013-07-05 14:19:00,
2013-07-05 09:21:00,76.2,68.1,30.03,ESE,113,0.0,0.0,76,-99.99,,,-99.99,WSDL version 423,2013-07-05 14:21:00,
2013-07-05 09:27:00,76.7,67.9,30.03,ESE,113,0.0,0.0,74,-99.99,,,-99.99,WSDL version 423,2013-07-05 14:27:00,
2013-07-05 09:30:00,77.0,68.0,30.03,ESE,113,0.0,0.0,73,-99.99,,,-99.99,WSDL version 423,2013-07-05 14:30:00,
2013-07-05 09:31:00,77.0,68.0,30.03,ESE,113,0.0,0.0,73,-99.99,,,-99.99,WSDL version 423,2013-07-05 14:31:00,
2013-07-05 09:32:00,77.1,68.0,30.03,ENE,78,0.0,0.0,73,-99.99,,,-99.99,WSDL version 423,2013-07-05 14:32:00,
2013-07-05 09:38:00,77.4,67.9,30.03,NW,315,0.0,0.0,72,-99.99,,,-99.99,WSDL version 423,2013-07-05 14:38:00,
2013-07-05 09:40:00,77.5,67.9,30.03,NW,315,0.0,0.0,72,-99.99,,,-99.99,WSDL version 423,2013-07-05 14:40:00,
2013-07-05 09:42:00,77.7,67.9,30.03,NW,315,0.0,0.0,72,-99.99,,,-99.99,WSDL version 423,2013-07-05 14:42:00,
2013-07-05 09:44:00,77.8,67.9,30.03,North,6,0.0,0.0,72,-99.99,,,-99.99,WSDL version 423,2013-07-05 14:44:00,
2013-07-05 09:45:00,77.8,67.8,30.03,NE,39,0.0,0.0,71,-99.99,,,-99.99,WSDL version 423,2013-07-05 14:45:00,
2013-07-05 09:49:00,77.8,67.2,30.03,NE,35,0.0,0.0,70,-99.99,,,-99.99,WSDL version 423,2013-07-05 14:49:00,
2013-07-05 09:55:00,77.5,66.7,30.03,NW,307,0.0,0.0,69,-99.99,,,-99.99,WSDL version 423,2013-07-05 14:55:00,
2013-07-05 09:56:00,77.6,66.7,30.03,NW,323,0.0,0.0,69,-99.99,,,-99.99,WSDL version 423,2013-07-05 14:56:00,
2013-07-05 09:58:00,77.6,66.7,30.03,NW,315,0.0,0.0,69,-99.99,,,-99.99,WSDL version 423,2013-07-05 14:58:00,
2013-07-05 10:01:00,77.8,66.5,30.03,NW,318,0.0,0.0,68,-99.99,,,-99.99,WSDL version 423,2013-07-05 15:01:00,
2013-07-05 10:03:00,77.8,66.3,30.03,North,10,0.0,0.0,67,-99.99,,,-99.99,WSDL version 423,2013-07-05 15:03:00,
2013-07-05 10:07:00,78.0,66.4,30.03,NE,37,0.0,0.0,67,-99.99,,,-99.99,WSDL version 423,2013-07-05 15:07:00,
2013-07-05 10:09:00,78.0,66.4,30.03,NE,53,0.0,0.0,68,-99.99,,,-99.99,WSDL version 423,2013-07-05 15:09:00,
2013-07-05 10:10:00,77.9,66.3,30.03,ENE,65,0.0,0.0,67,-99.99,,,-99.99,WSDL version 423,2013-07-05 15:10:00,
2013-07-05 10:14:00,77.9,66.0,30.03,NE,39,0.0,0.0,67,-99.99,,,-99.99,WSDL version 423,2013-07-05 15:14:00,
2013-07-05 10:15:00,77.9,66.0,30.03,NNW,341,0.0,0.0,67,-99.99,,,-99.99,WSDL version 423,2013-07-05 15:15:00,
2013-07-05 10:16:00,77.9,65.9,30.03,NNW,341,0.0,0.0,66,-99.99,,,-99.99,WSDL version 423,2013-07-05 15:16:00,
2013-07-05 10:19:00,77.9,65.8,30.03,NW,315,0.0,0.0,67,-99.99,,,-99.99,WSDL version 423,2013-07-05 15:19:00,
2013-07-05 10:20:00,77.9,65.8,30.03,NW,315,0.0,0.0,67,-99.99,,,-99.99,WSDL version 423,2013-07-05 15:20:00,
2013-07-05 10:23:00,77.9,66.0,30.03,NW,315,0.0,0.0,66,-99.99,,,-99.99,WSDL version 423,2013-07-05 15:23:00,
2013-07-05 10:26:00,78.0,66.0,30.03,NW,315,0.0,0.0,67,-99.99,,,-99.99,WSDL version 423,2013-07-05 15:26:00,
2013-07-05 10:27:00,78.0,65.9,30.03,NW,315,0.0,0.0,67,-99.99,,,-99.99,WSDL version 423,2013-07-05 15:27:00,
2013-07-05 10:29:00,78.1,66.2,30.03,NW,315,0.0,0.0,67,-99.99,,,-99.99,WSDL version 423,2013-07-05 15:29:00,
2013-07-05 10:32:00,78.3,66.3,30.03,NW,315,0.0,0.0,66,-99.99,,,-99.99,WSDL version 423,2013-07-05 15:32:00,
2013-07-05 10:34:00,78.4,66.4,30.03,NW,315,0.0,0.0,67,-99.99,,,-99.99,WSDL version 423,2013-07-05 15:34:00,
2013-07-05 10:35:00,78.6,66.5,30.03,NW,318,0.0,0.0,66,-99.99,,,-99.99,WSDL version 423,2013-07-05 15:35:00,
2013-07-05 10:37:00,78.7,66.6,30.03,NNW,338,0.0,0.0,66,-99.99,,,-99.99,WSDL version 423,2013-07-05 15:37:00,
2013-07-05 10:39:00,79.0,66.7,30.03,NNW,340,0.0,0.0,65,-99.99,,,-99.99,WSDL version 423,2013-07-05 15:39:00,
2013-07-05 10:40:00,79.1,66.7,30.03,North,354,0.0,0.0,65,-99.99,,,-99.99,WSDL version 423,2013-07-05 15:40:00,
2013-07-05 10:44:00,79.5,66.2,30.03,North,360,0.0,0.0,63,-99.99,,,-99.99,WSDL version 423,2013-07-05 15:44:00,
2013-07-05 10:47:00,80.0,66.5,30.03,North,3,0.0,0.0,64,-99.99,,,-99.99,WSDL version 423,2013-07-05 15:47:00,
2013-07-05 10:48:00,80.2,66.6,30.03,North,8,0.0,0.0,63,-99.99,,,-99.99,WSDL version 423,2013-07-05 15:48:00,
2013-07-05 10:50:00,80.6,67.1,30.03,North,360,0.0,0.0,63,-99.99,,,-99.99,WSDL version 423,2013-07-05 15:50:00,
2013-07-05 10:51:00,80.7,67.1,30.03,North,6,0.0,0.0,62,-99.99,,,-99.99,WSDL version 423,2013-07-05 15:51:00,
2013-07-05 10:53:00,81.0,67.0,30.03,NE,45,0.0,0.0,62,-99.99,,,-99.99,WSDL version 423,2013-07-05 15:53:00,
2013-07-05 10:54:00,81.1,66.8,30.03,NE,45,0.0,0.0,61,-99.99,,,-99.99,WSDL version 423,2013-07-05 15:54:00,
2013-07-05 10:55:00,81.1,66.6,30.03,NE,45,0.0,0.0,61,-99.99,,,-99.99,WSDL version 423,2013-07-05 15:55:00,
2013-07-05 10:56:00,81.1,66.4,30.03,NE,45,0.0,0.0,60,-99.99,,,-99.99,WSDL version 423,2013-07-05 15:56:00,
2013-07-05 10:59:00,81.0,65.7,30.03,NNE,17,0.0,0.0,59,-99.99,,,-99.99,WSDL version 423,2013-07-05 15:59:00,
2013-07-05 11:01:00,80.9,64.8,30.03,NW,312,0.0,0.0,58,-99.99,,,-99.99,WSDL version 423,2013-07-05 16:01:00,
2013-07-05 11:03:00,80.9,64.6,30.03,NW,312,0.0,0.0,58,-99.99,,,-99.99,WSDL version 423,2013-07-05 16:03:00,
2013-07-05 11:04:00,81.0,64.5,30.03,NNW,334,0.0,0.0,58,-99.99,,,-99.99,WSDL version 423,2013-07-05 16:04:00,
2013-07-05 11:06:00,81.1,64.7,30.03,North,354,0.0,0.0,57,-99.99,,,-99.99,WSDL version 423,2013-07-05 16:06:00,
2013-07-05 11:08:00,81.2,64.4,30.03,NE,45,0.0,0.0,56,-99.99,,,-99.99,WSDL version 423,2013-07-05 16:08:00,
2013-07-05 11:09:00,81.2,64.3,30.03,NNE,28,0.0,0.0,56,-99.99,,,-99.99,WSDL version 423,2013-07-05 16:09:00,
2013-07-05 11:10:00,81.2,64.2,30.03,NNE,31,0.0,0.0,56,-99.99,,,-99.99,WSDL version 423,2013-07-05 16:10:00,
2013-07-05 11:13:00,81.1,63.8,30.03,NNW,338,0.0,0.0,55,-99.99,,,-99.99,WSDL version 423,2013-07-05 16:13:00,
2013-07-05 11:15:00,81.2,63.5,30.03,NW,315,0.0,0.0,55,-99.99,,,-99.99,WSDL version 423,2013-07-05 16:15:00,
2013-07-05 11:16:00,81.2,63.5,30.03,NW,315,0.0,0.0,55,-99.99,,,-99.99,WSDL version 423,2013-07-05 16:16:00,
2013-07-05 11:18:00,81.4,63.7,30.03,NNE,15,0.0,0.0,55,-99.99,,,-99.99,WSDL version 423,2013-07-05 16:18:00,
2013-07-05 11:21:00,81.6,64.1,30.03,NE,45,0.0,0.0,55,-99.99,,,-99.99,WSDL version 423,2013-07-05 16:21:00,
2013-07-05 11:23:00,81.8,64.2,30.03,North,352,0.0,0.0,54,-99.99,,,-99.99,WSDL version 423,2013-07-05 16:23:00,
2013-07-05 11:24:00,81.9,64.0,30.03,NW,323,0.0,0.0,53,-99.99,,,-99.99,WSDL version 423,2013-07-05 16:24:00,
2013-07-05 11:27:00,81.9,62.8,30.03,NW,325,0.0,0.0,51,-99.99,,,-99.99,WSDL version 423,2013-07-05 16:27:00,
2013-07-05 11:28:00,82.0,62.5,30.03,NNW,330,0.0,0.0,52,-99.99,,,-99.99,WSDL version 423,2013-07-05 16:28:00,
2013-07-05 11:29:00,82.1,62.5,30.03,NNW,332,0.0,0.0,52,-99.99,,,-99.99,WSDL version 423,2013-07-05 16:29:00,
2013-07-05 11:34:00,83.0,63.8,30.03,North,350,0.0,0.0,52,-99.99,,,-99.99,WSDL version 423,2013-07-05 16:34:00,
2013-07-05 11:35:00,83.1,63.8,30.03,North,349,0.0,0.0,52,-99.99,,,-99.99,WSDL version 423,2013-07-05 16:35:00,
2013-07-05 11:38:00,82.9,63.3,30.03,NNE,23,0.0,0.0,52,-99.99,,,-99.99,WSDL version 423,2013-07-05 16:38:00,
2013-07-05 11:40:00,82.7,63.1,30.03,NNW,346,0.0,0.0,52,-99.99,,,-99.99,WSDL version 423,2013-07-05 16:40:00,
2013-07-05 11:41:00,82.7,62.9,30.03,NW,325,0.0,0.0,51,-99.99,,,-99.99,WSDL version 423,2013-07-05 16:41:00,
2013-07-05 11:43:00,82.4,62.6,30.03,NE,45,0.0,0.0,52,-99.99,,,-99.99,WSDL version 423,2013-07-05 16:43:00,
2013-07-05 11:44:00,82.2,62.5,30.03,ENE,64,0.0,0.0,52,-99.99,,,-99.99,WSDL version 423,2013-07-05 16:44:00,
2013-07-05 11:45:00,82.0,62.3,30.03,NNW,335,0.0,0.0,52,-99.99,,,-99.99,WSDL version 423,2013-07-05 16:45:00,
2013-07-05 11:48:00,81.5,62.3,30.03,NNW,348,0.0,0.0,52,-99.99,,,-99.99,WSDL version 423,2013-07-05 16:48:00,
2013-07-05 11:49:00,81.5,62.3,30.03,ENE,63,0.0,0.0,52,-99.99,,,-99.99,WSDL version 423,2013-07-05 16:49:00,
2013-07-05 11:50:00,81.4,62.4,30.03,North,8,0.0,0.0,53,-99.99,,,-99.99,WSDL version 423,2013-07-05 16:50:00,
2013-07-05 11:54:00,80.9,62.6,30.03,West,267,0.0,0.0,54,-99.99,,,-99.99,WSDL version 423,2013-07-05 16:54:00,
2013-07-05 11:55:00,80.9,62.8,30.03,NW,315,0.0,0.0,55,-99.99,,,-99.99,WSDL version 423,2013-07-05 16:55:00,
2013-07-05 11:57:00,80.9,63.1,30.03,NNW,346,0.0,0.0,55,-99.99,,,-99.99,WSDL version 423,2013-07-05 16:57:00,
2013-07-05 11:58:00,81.0,63.3,30.03,NE,51,0.0,0.0,55,-99.99,,,-99.99,WSDL version 423,2013-07-05 16:58:00,
2013-07-05 11:59:00,81.0,63.4,30.03,East,88,0.0,0.0,55,-99.99,,,-99.99,WSDL version 423,2013-07-05 16:59:00,
2013-07-05 12:02:00,80.9,62.9,30.03,East,98,0.0,0.0,53,-99.99,,,-99.99,WSDL version 423,2013-07-05 17:02:00,
2013-07-05 12:06:00,80.8,62.6,30.03,ESE,113,0.0,0.0,54,-99.99,,,-99.99,WSDL version 423,2013-07-05 17:06:00,
2013-07-05 12:07:00,80.8,62.8,30.03,SSE,148,0.0,0.0,54,-99.99,,,-99.99,WSDL version 423,2013-07-05 17:07:00,
2013-07-05 12:08:00,81.0,63.0,30.03,SSW,197,0.0,0.0,55,-99.99,,,-99.99,WSDL version 423,2013-07-05 17:08:00,
2013-07-05 12:09:00,81.2,63.1,30.03,SW,223,0.0,0.0,54,-99.99,,,-99.99,WSDL version 423,2013-07-05 17:09:00,
2013-07-05 12:10:00,81.4,63.4,30.03,SSE,153,0.0,0.0,55,-99.99,,,-99.99,WSDL version 423,2013-07-05 17:10:00,
2013-07-05 12:14:00,82.3,64.4,30.03,NE,53,0.0,0.0,54,-99.99,,,-99.99,WSDL version 423,2013-07-05 17:14:00,
2013-07-05 12:15:00,82.5,64.3,30.03,East,90,0.0,0.0,53,-99.99,,,-99.99,WSDL version 423,2013-07-05 17:15:00,
2013-07-05 12:19:00,83.1,63.9,30.03,NE,45,0.0,0.0,52,-99.99,,,-99.99,WSDL version 423,2013-07-05 17:19:00,
2013-07-05 12:20:00,83.3,63.9,30.03,ENE,65,0.0,0.0,52,-99.99,,,-99.99,WSDL version 423,2013-07-05 17:20:00,
2013-07-05 12:21:00,83.6,64.0,30.03,SE,125,0.0,0.0,52,-99.99,,,-99.99,WSDL version 423,2013-07-05 17:21:00,
2013-07-05 12:23:00,84.4,64.4,30.03,SSW,208,0.0,0.0,51,-99.99,,,-99.99,WSDL version 423,2013-07-05 17:23:00,
2013-07-05 12:25:00,85.0,64.7,30.03,SW,233,0.0,0.0,50,-99.99,,,-99.99,WSDL version 423,2013-07-05 17:25:00,
2013-07-05 12:30:00,86.1,64.2,30.03,SW,228,0.0,0.0,48,-99.99,,,-99.99,WSDL version 423,2013-07-05 17:30:00,
2013-07-05 12:31:00,86.4,64.2,30.03,SSW,208,0.0,0.0,47,-99.99,,,-99.99,WSDL version 423,2013-07-05 17:31:00,
2013-07-05 12:32:00,86.5,63.9,30.03,SSW,208,0.0,0.0,45,-99.99,,,-99.99,WSDL version 423,2013-07-05 17:32:00,
2013-07-05 12:34:00,86.8,63.9,30.03,West,265,0.0,0.0,46,-99.99,,,-99.99,WSDL version 423,2013-07-05 17:34:00,
2013-07-05 12:36:00,86.8,63.1,30.03,West,270,0.0,0.0,45,-99.99,,,-99.99,WSDL version 423,2013-07-05 17:36:00,
2013-07-05 12:37:00,86.8,63.1,30.03,West,270,0.0,0.0,45,-99.99,,,-99.99,WSDL version 423,2013-07-05 17:37:00,
2013-07-05 12:41:00,86.5,63.0,30.03,WSW,238,0.0,0.0,46,-99.99,,,-99.99,WSDL version 423,2013-07-05 17:41:00,
2013-07-05 12:42:00,86.3,63.0,30.03,NW,308,0.0,0.0,46,-99.99,,,-99.99,WSDL version 423,2013-07-05 17:42:00,
2013-07-05 12:44:00,85.9,62.8,30.03,East,90,0.0,0.0,46,-99.99,,,-99.99,WSDL version 423,2013-07-05 17:44:00,
2013-07-05 12:45:00,85.7,62.7,30.03,East,95,0.0,0.0,47,-99.99,,,-99.99,WSDL version 423,2013-07-05 17:45:00,
2013-07-05 12:46:00,85.4,62.4,30.03,East,98,0.0,0.0,46,-99.99,,,-99.99,WSDL version 423,2013-07-05 17:46:00,
2013-07-05 12:47:00,85.1,62.2,30.03,East,93,0.0,0.0,47,-99.99,,,-99.99,WSDL version 423,2013-07-05 17:47:00,
2013-07-05 12:48:00,84.9,62.2,30.03,East,90,0.0,0.0,47,-99.99,,,-99.99,WSDL version 423,2013-07-05 17:48:00,
2013-07-05 12:51:00,84.3,61.7,30.03,East,100,0.0,0.0,47,-99.99,,,-99.99,WSDL version 423,2013-07-05 17:51:00,
2013-07-05 12:52:00,84.1,61.7,30.03,East,90,0.0,0.0,48,-99.99,,,-99.99,WSDL version 423,2013-07-05 17:52:00,
2013-07-05 12:53:00,84.0,61.7,30.03,East,101,0.0,0.0,48,-99.99,,,-99.99,WSDL version 423,2013-07-05 17:53:00,
2013-07-05 12:55:00,83.8,61.9,30.03,ESE,115,0.0,0.0,48,-99.99,,,-99.99,WSDL version 423,2013-07-05 17:55:00,
2013-07-05 12:56:00,83.8,61.9,30.03,ESE,103,0.0,0.0,48,-99.99,,,-99.99,WSDL version 423,2013-07-05 17:56:00,
2013-07-05 12:59:00,83.6,61.9,30.03,ESE,105,0.0,0.0,48,-99.99,,,-99.99,WSDL version 423,2013-07-05 17:59:00,
2013-07-05 13:01:00,83.6,61.8,30.00,ESE,115,0.0,0.0,48,-99.99,,,-99.99,WSDL version 423,2013-07-05 18:01:00,
2013-07-05 13:04:00,83.4,61.7,30.00,NNE,25,0.0,0.0,49,-99.99,,,-99.99,WSDL version 423,2013-07-05 18:04:00,
2013-07-05 13:05:00,83.4,61.8,30.00,NNW,330,0.0,0.0,49,-99.99,,,-99.99,WSDL version 423,2013-07-05 18:05:00,
2013-07-05 13:06:00,83.5,62.0,30.00,NW,318,0.0,0.0,49,-99.99,,,-99.99,WSDL version 423,2013-07-05 18:06:00,
2013-07-05 13:07:00,83.6,62.2,30.00,SSW,200,0.0,0.0,49,-99.99,,,-99.99,WSDL version 423,2013-07-05 18:07:00,
2013-07-05 13:11:00,84.2,62.5,30.00,SE,132,0.0,0.0,47,-99.99,,,-99.99,WSDL version 423,2013-07-05 18:11:00,
2013-07-05 13:12:00,84.2,62.3,30.00,ESE,108,0.0,0.0,47,-99.99,,,-99.99,WSDL version 423,2013-07-05 18:12:00,
2013-07-05 13:16:00,84.1,61.7,30.00,East,95,0.0,0.0,46,-99.99,,,-99.99,WSDL version 423,2013-07-05 18:16:00,
2013-07-05 13:18:00,83.9,61.3,30.00,SSE,166,0.0,0.0,47,-99.99,,,-99.99,WSDL version 423,2013-07-05 18:18:00,
2013-07-05 13:19:00,83.9,61.3,30.00,West,270,0.0,0.0,48,-99.99,,,-99.99,WSDL version 423,2013-07-05 18:19:00,
2013-07-05 13:22:00,84.3,62.2,30.00,NNW,341,0.0,0.0,47,-99.99,,,-99.99,WSDL version 423,2013-07-05 18:22:00,
2013-07-05 13:24:00,84.4,62.1,30.00,SE,125,0.0,0.0,47,-99.99,,,-99.99,WSDL version 423,2013-07-05 18:24:00,
2013-07-05 13:26:00,84.3,61.7,30.00,East,98,0.0,0.0,46,-99.99,,,-99.99,WSDL version 423,2013-07-05 18:26:00,
2013-07-05 13:28:00,84.1,61.5,30.00,ESE,104,0.0,0.0,47,-99.99,,,-99.99,WSDL version 423,2013-07-05 18:28:00,
2013-07-05 13:30:00,83.9,61.3,30.00,ESE,105,0.0,0.0,47,-99.99,,,-99.99,WSDL version 423,2013-07-05 18:30:00,
2013-07-05 13:31:00,83.9,61.4,30.00,ESE,113,0.0,0.0,47,-99.99,,,-99.99,WSDL version 423,2013-07-05 18:31:00,
2013-07-05 13:33:00,84.1,61.9,30.00,ESE,115,0.0,0.0,48,-99.99,,,-99.99,WSDL version 423,2013-07-05 18:33:00,
2013-07-05 13:34:00,84.2,62.1,30.00,ESE,113,0.0,0.0,48,-99.99,,,-99.99,WSDL version 423,2013-07-05 18:34:00,
2013-07-05 13:35:00,84.3,62.3,30.00,ESE,113,0.0,0.0,48,-99.99,,,-99.99,WSDL version 423,2013-07-05 18:35:00,
2013-07-05 13:36:00,84.5,62.6,30.00,ESE,110,0.0,0.0,48,-99.99,,,-99.99,WSDL version 423,2013-07-05 18:36:00,
2013-07-05 13:37:00,84.7,62.8,30.00,East,100,0.0,0.0,48,-99.99,,,-99.99,WSDL version 423,2013-07-05 18:37:00,
2013-07-05 13:39:00,84.9,62.6,30.00,SE,135,0.0,0.0,46,-99.99,,,-99.99,WSDL version 423,2013-07-05 18:39:00,
2013-07-05 13:41:00,85.0,62.1,30.00,NE,55,0.0,0.0,45,-99.99,,,-99.99,WSDL version 423,2013-07-05 18:41:00,
2013-07-05 13:43:00,84.9,61.6,30.00,ESE,107,0.0,0.0,45,-99.99,,,-99.99,WSDL version 423,2013-07-05 18:43:00,
2013-07-05 13:46:00,84.9,61.4,30.00,ESE,106,0.0,0.0,46,-99.99,,,-99.99,WSDL version 423,2013-07-05 18:46:00,
2013-07-05 13:47:00,85.2,61.8,30.00,SE,125,0.0,0.0,46,-99.99,,,-99.99,WSDL version 423,2013-07-05 18:47:00,
2013-07-05 13:48:00,85.4,61.9,30.00,ESE,103,0.0,0.0,44,-99.99,,,-99.99,WSDL version 423,2013-07-05 18:48:00,
2013-07-05 13:49:00,85.7,62.1,30.00,NE,37,0.0,0.0,45,-99.99,,,-99.99,WSDL version 423,2013-07-05 18:49:00,
2013-07-05 13:50:00,85.9,62.2,30.00,NNE,20,0.0,0.0,44,-99.99,,,-99.99,WSDL version 423,2013-07-05 18:50:00,
2013-07-05 13:52:00,86.4,62.3,30.00,ESE,120,0.0,0.0,45,-99.99,,,-99.99,WSDL version 423,2013-07-05 18:52:00,
2013-07-05 13:54:00,86.7,62.5,30.00,SE,133,0.0,0.0,45,-99.99,,,-99.99,WSDL version 423,2013-07-05 18:54:00,
2013-07-05 13:55:00,86.7,62.4,30.00,SE,140,0.0,0.0,43,-99.99,,,-99.99,WSDL version 423,2013-07-05 18:55:00,
2013-07-05 13:56:00,86.7,62.4,30.00,ESE,107,0.0,0.0,44,-99.99,,,-99.99,WSDL version 423,2013-07-05 18:56:00,
2013-07-05 14:00:00,87.0,62.6,30.00,East,84,0.0,0.0,44,-99.99,,,-99.99,WSDL version 423,2013-07-05 19:00:00,
2013-07-05 14:02:00,87.2,62.6,30.00,NNW,333,0.0,0.0,44,-99.99,,,-99.99,WSDL version 423,2013-07-05 19:02:00,
2013-07-05 14:03:00,87.2,62.5,30.00,North,3,0.0,0.0,43,-99.99,,,-99.99,WSDL version 423,2013-07-05 19:03:00,
2013-07-05 14:06:00,87.0,61.9,30.00,ESE,118,0.0,0.0,42,-99.99,,,-99.99,WSDL version 423,2013-07-05 19:06:00,
2013-07-05 14:08:00,86.6,60.8,30.00,ESE,108,0.0,0.0,41,-99.99,,,-99.99,WSDL version 423,2013-07-05 19:08:00,
2013-07-05 14:09:00,86.5,60.7,30.00,SE,130,0.0,0.0,42,-99.99,,,-99.99,WSDL version 423,2013-07-05 19:09:00,
2013-07-05 14:10:00,86.5,60.4,30.00,South,183,0.0,0.0,41,-99.99,,,-99.99,WSDL version 423,2013-07-05 19:10:00,
2013-07-05 14:11:00,86.5,60.1,30.00,South,183,0.0,0.0,40,-99.99,,,-99.99,WSDL version 423,2013-07-05 19:11:00,
2013-07-05 14:14:00,87.1,60.3,30.00,WNW,287,0.0,0.0,41,-99.99,,,-99.99,WSDL version 423,2013-07-05 19:14:00,
2013-07-05 14:16:00,87.5,60.9,30.00,NW,315,0.0,0.0,41,-99.99,,,-99.99,WSDL version 423,2013-07-05 19:16:00,
2013-07-05 14:17:00,87.5,60.9,30.00,WNW,293,0.0,0.0,41,-99.99,,,-99.99,WSDL version 423,2013-07-05 19:17:00,
2013-07-05 14:18:00,87.5,61.0,30.00,SE,127,0.0,0.0,41,-99.99,,,-99.99,WSDL version 423,2013-07-05 19:18:00,
2013-07-05 14:20:00,87.3,60.8,30.00,East,100,0.0,0.0,41,-99.99,,,-99.99,WSDL version 423,2013-07-05 19:20:00,
2013-07-05 14:22:00,87.0,60.3,30.00,ESE,123,0.0,0.0,41,-99.99,,,-99.99,WSDL version 423,2013-07-05 19:22:00,
2013-07-05 14:23:00,86.9,60.1,30.00,SSE,155,0.0,0.0,41,-99.99,,,-99.99,WSDL version 423,2013-07-05 19:23:00,
2013-07-05 14:24:00,86.8,60.0,30.00,SSE,152,0.0,0.0,41,-99.99,,,-99.99,WSDL version 423,2013-07-05 19:24:00,
2013-07-05 14:27:00,86.7,59.7,30.00,SSE,148,0.0,0.0,40,-99.99,,,-99.99,WSDL version 423,2013-07-05 19:27:00,
2013-07-05 14:28:00,86.7,59.6,30.00,SSE,149,0.0,0.0,40,-99.99,,,-99.99,WSDL version 423,2013-07-05 19:28:00,
2013-07-05 14:29:00,86.9,59.6,30.00,SSE,150,0.0,0.0,40,-99.99,,,-99.99,WSDL version 423,2013-07-05 19:29:00,
2013-07-05 14:31:00,87.3,59.6,30.00,ESE,107,0.0,0.0,39,-99.99,,,-99.99,WSDL version 423,2013-07-05 19:31:00,
2013-07-05 14:32:00,87.5,59.4,30.00,East,96,0.0,0.0,38,-99.99,,,-99.99,WSDL version 423,2013-07-05 19:32:00,
2013-07-05 14:33:00,87.6,59.3,30.00,ESE,110,0.0,0.0,38,-99.99,,,-99.99,WSDL version 423,2013-07-05 19:33:00,
2013-07-05 14:35:00,87.8,59.4,30.00,SE,129,0.0,0.0,39,-99.99,,,-99.99,WSDL version 423,2013-07-05 19:35:00,
2013-07-05 14:36:00,87.9,59.4,30.00,SSE,168,0.0,0.0,39,-99.99,,,-99.99,WSDL version 423,2013-07-05 19:36:00,
2013-07-05 14:40:00,88.4,59.6,30.00,SE,143,0.0,0.0,38,-99.99,,,-99.99,WSDL version 423,2013-07-05 19:40:00,
2013-07-05 14:41:00,88.4,59.4,30.00,SE,138,0.0,0.0,37,-99.99,,,-99.99,WSDL version 423,2013-07-05 19:41:00,
2013-07-05 14:43:00,88.4,59.2,30.00,East,95,0.0,0.0,38,-99.99,,,-99.99,WSDL version 423,2013-07-05 19:43:00,
2013-07-05 14:45:00,88.2,59.0,30.00,South,191,0.0,0.0,37,-99.99,,,-99.99,WSDL version 423,2013-07-05 19:45:00,
2013-07-05 14:46:00,88.1,59.0,30.00,SW,222,0.0,0.0,37,-99.99,,,-99.99,WSDL version 423,2013-07-05 19:46:00,
2013-07-05 14:48:00,88.2,59.0,30.00,WSW,245,0.0,0.0,38,-99.99,,,-99.99,WSDL version 423,2013-07-05 19:48:00,
2013-07-05 14:49:00,88.3,59.0,30.00,NE,51,0.0,0.0,38,-99.99,,,-99.99,WSDL version 423,2013-07-05 19:49:00,
2013-07-05 14:51:00,88.4,59.4,30.00,South,173,0.0,0.0,38,-99.99,,,-99.99,WSDL version 423,2013-07-05 19:51:00,
2013-07-05 14:53:00,88.7,59.6,30.00,WSW,242,0.0,0.0,38,-99.99,,,-99.99,WSDL version 423,2013-07-05 19:53:00,
2013-07-05 14:57:00,89.0,59.9,30.00,SSW,205,0.0,0.0,38,-99.99,,,-99.99,WSDL version 423,2013-07-05 19:57:00,
2013-07-05 14:59:00,88.8,59.7,30.00,SSW,209,0.0,0.0,38,-99.99,,,-99.99,WSDL version 423,2013-07-05 19:59:00,
2013-07-05 15:00:00,88.6,59.5,30.00,SW,222,0.0,0.0,38,-99.99,,,-99.99,WSDL version 423,2013-07-05 20:00:00,
2013-07-05 15:02:00,88.5,59.4,30.00,SW,215,0.0,0.0,38,-99.99,,,-99.99,WSDL version 423,2013-07-05 20:02:00,
2013-07-05 15:04:00,88.3,59.4,30.00,SSW,210,0.0,0.0,38,-99.99,,,-99.99,WSDL version 423,2013-07-05 20:04:00,
2013-07-05 15:08:00,88.5,59.9,30.00,SSE,148,0.0,0.0,39,-99.99,,,-99.99,WSDL version 423,2013-07-05 20:08:00,
2013-07-05 15:09:00,88.7,60.2,30.00,East,100,0.0,0.0,39,-99.99,,,-99.99,WSDL version 423,2013-07-05 20:09:00,
2013-07-05 15:12:00,88.4,60.1,30.00,SE,140,0.0,0.0,39,-99.99,,,-99.99,WSDL version 423,2013-07-05 20:12:00,
2013-07-05 15:13:00,88.3,60.0,30.00,South,183,0.0,0.0,39,-99.99,,,-99.99,WSDL version 423,2013-07-05 20:13:00,
2013-07-05 15:14:00,88.1,59.8,30.00,SSW,194,0.0,0.0,38,-99.99,,,-99.99,WSDL version 423,2013-07-05 20:14:00,
2013-07-05 15:17:00,87.7,59.4,29.97,ESE,113,0.0,0.0,39,-99.99,,,-99.99,WSDL version 423,2013-07-05 20:17:00,
2013-07-05 15:18:00,87.5,59.3,29.97,ESE,113,0.0,0.0,39,-99.99,,,-99.99,WSDL version 423,2013-07-05 20:18:00,
2013-07-05 15:19:00,87.5,59.3,29.97,ESE,113,0.0,0.0,39,-99.99,,,-99.99,WSDL version 423,2013-07-05 20:19:00,
2013-07-05 15:20:00,87.5,59.3,29.97,ESE,118,0.0,0.0,39,-99.99,,,-99.99,WSDL version 423,2013-07-05 20:20:00,
2013-07-05 15:22:00,87.6,59.5,29.97,SE,130,0.0,0.0,40,-99.99,,,-99.99,WSDL version 423,2013-07-05 20:22:00,
2013-07-05 15:23:00,87.8,59.9,29.97,ESE,115,0.0,0.0,40,-99.99,,,-99.99,WSDL version 423,2013-07-05 20:23:00,
2013-07-05 15:24:00,88.0,60.3,29.97,ESE,115,0.0,0.0,41,-99.99,,,-99.99,WSDL version 423,2013-07-05 20:24:00,
2013-07-05 15:29:00,89.0,60.9,29.97,NW,323,0.0,0.0,38,-99.99,,,-99.99,WSDL version 423,2013-07-05 20:29:00,
2013-07-05 15:31:00,89.1,60.1,29.97,NW,307,0.0,0.0,38,-99.99,,,-99.99,WSDL version 423,2013-07-05 20:31:00,
2013-07-05 15:32:00,89.1,60.1,29.97,West,278,0.0,0.0,38,-99.99,,,-99.99,WSDL version 423,2013-07-05 20:32:00,
2013-07-05 15:34:00,88.9,60.1,29.97,ESE,113,0.0,0.0,38,-99.99,,,-99.99,WSDL version 423,2013-07-05 20:34:00,
2013-07-05 15:35:00,88.7,60.1,29.97,ESE,113,0.0,0.0,39,-99.99,,,-99.99,WSDL version 423,2013-07-05 20:35:00,
2013-07-05 15:39:00,88.1,59.6,29.97,South,190,0.0,0.0,39,-99.99,,,-99.99,WSDL version 423,2013-07-05 20:39:00,
2013-07-05 15:40:00,88.2,59.7,29.97,South,173,0.0,0.0,39,-99.99,,,-99.99,WSDL version 423,2013-07-05 20:40:00,
2013-07-05 15:41:00,88.2,59.7,29.97,SE,132,0.0,0.0,39,-99.99,,,-99.99,WSDL version 423,2013-07-05 20:41:00,
2013-07-05 15:42:00,88.2,59.9,29.97,ESE,119,0.0,0.0,39,-99.99,,,-99.99,WSDL version 423,2013-07-05 20:42:00,
2013-07-05 15:44:00,88.2,60.0,29.97,East,90,0.0,0.0,39,-99.99,,,-99.99,WSDL version 423,2013-07-05 20:44:00,
2013-07-05 15:47:00,88.0,59.7,29.97,ENE,60,0.0,0.0,39,-99.99,,,-99.99,WSDL version 423,2013-07-05 20:47:00,
2013-07-05 15:49:00,87.8,59.4,29.97,SE,129,0.0,0.0,39,-99.99,,,-99.99,WSDL version 423,2013-07-05 20:49:00,
2013-07-05 15:50:00,87.6,59.4,29.97,ESE,110,0.0,0.0,40,-99.99,,,-99.99,WSDL version 423,2013-07-05 20:50:00,
2013-07-05 15:52:00,87.4,59.4,29.97,ESE,118,0.0,0.0,40,-99.99,,,-99.99,WSDL version 423,2013-07-05 20:52:00,
2013-07-05 15:53:00,87.1,59.5,29.97,ESE,123,0.0,0.0,40,-99.99,,,-99.99,WSDL version 423,2013-07-05 20:53:00,
2013-07-05 15:55:00,86.9,59.6,29.97,NE,48,0.0,0.0,41,-99.99,,,-99.99,WSDL version 423,2013-07-05 20:55:00,
2013-07-05 15:56:00,86.7,59.7,29.97,East,93,0.0,0.0,41,-99.99,,,-99.99,WSDL version 423,2013-07-05 20:56:00,
2013-07-05 15:58:00,86.5,59.8,29.97,SE,125,0.0,0.0,41,-99.99,,,-99.99,WSDL version 423,2013-07-05 20:58:00,
2013-07-05 16:00:00,86.2,59.9,30.00,ESE,113,0.0,0.0,41,-99.99,,,-99.99,WSDL version 423,2013-07-05 21:00:00,
2013-07-05 16:01:00,86.1,60.1,30.00,ESE,108,0.0,0.0,43,-99.99,,,-99.99,WSDL version 423,2013-07-05 21:01:00,
2013-07-05 16:02:00,86.1,60.4,30.00,East,101,0.0,0.0,43,-99.99,,,-99.99,WSDL version 423,2013-07-05 21:02:00,
2013-07-05 16:03:00,86.0,60.5,30.00,ESE,107,0.0,0.0,42,-99.99,,,-99.99,WSDL version 423,2013-07-05 21:03:00,
2013-07-05 16:05:00,86.1,61.0,30.00,SSE,150,0.0,0.0,43,-99.99,,,-99.99,WSDL version 423,2013-07-05 21:05:00,
2013-07-05 16:07:00,86.1,61.1,30.00,WNW,298,0.0,0.0,44,-99.99,,,-99.99,WSDL version 423,2013-07-05 21:07:00,
2013-07-05 16:08:00,86.2,61.5,30.00,NNW,348,0.0,0.0,44,-99.99,,,-99.99,WSDL version 423,2013-07-05 21:08:00,
2013-07-05 16:10:00,86.2,61.7,30.00,NNE,20,0.0,0.0,44,-99.99,,,-99.99,WSDL version 423,2013-07-05 21:10:00,
2013-07-05 16:11:00,86.2,61.8,30.00,NNW,333,0.0,0.0,44,-99.99,,,-99.99,WSDL version 423,2013-07-05 21:11:00,
2013-07-05 16:14:00,86.2,61.8,30.00,WNW,293,0.0,0.0,44,-99.99,,,-99.99,WSDL version 423,2013-07-05 21:14:00,
2013-07-05 16:16:00,86.3,62.1,29.97,WNW,293,0.0,0.0,45,-99.99,,,-99.99,WSDL version 423,2013-07-05 21:16:00,
2013-07-05 16:17:00,86.3,62.4,29.97,WNW,290,0.0,0.0,45,-99.99,,,-99.99,WSDL version 423,2013-07-05 21:17:00,
2013-07-05 16:20:00,86.5,62.4,29.97,NNW,341,0.0,0.0,44,-99.99,,,-99.99,WSDL version 423,2013-07-05 21:20:00,
2013-07-05 16:21:00,86.6,62.4,29.97,North,6,0.0,0.0,44,-99.99,,,-99.99,WSDL version 423,2013-07-05 21:21:00,
2013-07-05 16:22:00,86.6,62.3,29.97,North,3,0.0,0.0,44,-99.99,,,-99.99,WSDL version 423,2013-07-05 21:22:00,
2013-07-05 16:23:00,86.6,62.3,29.97,NW,315,0.0,0.0,44,-99.99,,,-99.99,WSDL version 423,2013-07-05 21:23:00,
2013-07-05 16:27:00,86.6,62.3,29.97,WNW,293,0.0,0.0,44,-99.99,,,-99.99,WSDL version 423,2013-07-05 21:27:00,
2013-07-05 16:29:00,86.7,62.3,29.97,WNW,283,0.0,0.0,44,-99.99,,,-99.99,WSDL version 423,2013-07-05 21:29:00,
2013-07-05 16:30:00,86.7,62.3,29.97,WNW,287,0.0,0.0,44,-99.99,,,-99.99,WSDL version 423,2013-07-05 21:30:00,
2013-07-05 16:32:00,86.6,62.3,29.97,SSE,163,0.0,0.0,45,-99.99,,,-99.99,WSDL version 423,2013-07-05 21:32:00,
2013-07-05 16:34:00,86.4,62.4,29.97,NE,34,0.0,0.0,45,-99.99,,,-99.99,WSDL version 423,2013-07-05 21:34:00,
2013-07-05 16:36:00,86.4,62.4,29.97,North,357,0.0,0.0,44,-99.99,,,-99.99,WSDL version 423,2013-07-05 21:36:00,
2013-07-05 16:37:00,86.5,62.3,29.97,NW,312,0.0,0.0,44,-99.99,,,-99.99,WSDL version 423,2013-07-05 21:37:00,
2013-07-05 16:38:00,86.6,62.4,29.97,North,354,0.0,0.0,44,-99.99,,,-99.99,WSDL version 423,2013-07-05 21:38:00,
2013-07-05 16:41:00,86.9,62.5,29.97,North,8,0.0,0.0,44,-99.99,,,-99.99,WSDL version 423,2013-07-05 21:41:00,
2013-07-05 16:42:00,86.9,62.6,29.97,North,360,0.0,0.0,45,-99.99,,,-99.99,WSDL version 423,2013-07-05 21:42:00,
2013-07-05 16:44:00,87.0,62.7,29.97,NNE,23,0.0,0.0,44,-99.99,,,-99.99,WSDL version 423,2013-07-05 21:44:00,
2013-07-05 16:47:00,87.0,62.7,29.97,East,90,0.0,0.0,45,-99.99,,,-99.99,WSDL version 423,2013-07-05 21:47:00,
2013-07-05 16:49:00,86.9,62.6,29.97,East,90,0.0,0.0,44,-99.99,,,-99.99,WSDL version 423,2013-07-05 21:49:00,
2013-07-05 16:53:00,86.6,62.5,29.97,NNE,23,0.0,0.0,44,-99.99,,,-99.99,WSDL version 423,2013-07-05 21:53:00,
2013-07-05 16:54:00,86.5,62.5,29.97,NNE,23,0.0,0.0,44,-99.99,,,-99.99,WSDL version 423,2013-07-05 21:54:00,
2013-07-05 16:55:00,86.5,62.4,29.97,NNE,23,0.0,0.0,44,-99.99,,,-99.99,WSDL version 423,2013-07-05 21:55:00,
2013-07-05 16:56:00,86.5,62.4,29.97,North,8,0.0,0.0,45,-99.99,,,-99.99,WSDL version 423,2013-07-05 21:56:00,
2013-07-05 17:00:00,86.6,62.4,29.97,NW,308,0.0,0.0,44,-99.99,,,-99.99,WSDL version 423,2013-07-05 22:00:00,
2013-07-05 17:01:00,86.7,62.4,29.97,West,270,0.0,0.0,44,-99.99,,,-99.99,WSDL version 423,2013-07-05 22:01:00,
2013-07-05 17:02:00,86.7,62.4,29.97,West,270,0.0,0.0,44,-99.99,,,-99.99,WSDL version 423,2013-07-05 22:02:00,
2013-07-05 17:05:00,86.7,62.4,29.97,NNW,338,0.0,0.0,44,-99.99,,,-99.99,WSDL version 423,2013-07-05 22:05:00,
2013-07-05 17:07:00,86.7,62.4,29.97,WNW,293,0.0,0.0,45,-99.99,,,-99.99,WSDL version 423,2013-07-05 22:07:00,
2013-07-05 17:08:00,86.7,62.5,29.97,WNW,288,0.0,0.0,45,-99.99,,,-99.99,WSDL version 423,2013-07-05 22:08:00,
2013-07-05 17:10:00,86.6,62.5,29.97,East,100,0.0,0.0,44,-99.99,,,-99.99,WSDL version 423,2013-07-05 22:10:00,
2013-07-05 17:12:00,86.4,62.1,29.97,SE,143,0.0,0.0,44,-99.99,,,-99.99,WSDL version 423,2013-07-05 22:12:00,
2013-07-05 17:13:00,86.3,62.0,29.97,SE,124,0.0,0.0,44,-99.99,,,-99.99,WSDL version 423,2013-07-05 22:13:00,
2013-07-05 17:15:00,86.1,61.8,29.97,ESE,113,0.0,0.0,44,-99.99,,,-99.99,WSDL version 423,2013-07-05 22:15:00,
2013-07-05 17:18:00,86.0,61.7,29.97,ESE,113,0.0,0.0,44,-99.99,,,-99.99,WSDL version 423,2013-07-05 22:18:00,
2013-07-05 17:19:00,86.0,61.9,29.97,ESE,113,0.0,0.0,45,-99.99,,,-99.99,WSDL version 423,2013-07-05 22:19:00,
2013-07-05 17:20:00,86.0,62.0,29.97,ESE,113,0.0,0.0,45,-99.99,,,-99.99,WSDL version 423,2013-07-05 22:20:00,
2013-07-05 17:21:00,86.0,62.1,29.97,ESE,113,0.0,0.0,45,-99.99,,,-99.99,WSDL version 423,2013-07-05 22:21:00,
2013-07-05 17:25:00,86.3,62.4,29.97,NW,318,0.0,0.0,44,-99.99,,,-99.99,WSDL version 423,2013-07-05 22:25:00,
2013-07-05 17:26:00,86.4,62.5,29.97,NNW,335,0.0,0.0,45,-99.99,,,-99.99,WSDL version 423,2013-07-05 22:26:00,
2013-07-05 17:27:00,86.4,62.5,29.97,NNW,338,0.0,0.0,45,-99.99,,,-99.99,WSDL version 423,2013-07-05 22:27:00,
2013-07-05 17:30:00,86.3,62.6,29.97,SSE,149,0.0,0.0,45,-99.99,,,-99.99,WSDL version 423,2013-07-05 22:30:00,
2013-07-05 17:31:00,86.2,62.5,29.97,ESE,115,0.0,0.0,45,-99.99,,,-99.99,WSDL version 423,2013-07-05 22:31:00,
2013-07-05 17:35:00,86.1,62.2,29.97,NNW,338,0.0,0.0,44,-99.99,,,-99.99,WSDL version 423,2013-07-05 22:35:00,
2013-07-05 17:37:00,86.1,62.2,29.97,WNW,293,0.0,0.0,45,-99.99,,,-99.99,WSDL version 423,2013-07-05 22:37:00,
2013-07-05 17:39:00,86.1,62.2,29.97,NW,323,0.0,0.0,45,-99.99,,,-99.99,WSDL version 423,2013-07-05 22:39:00,
2013-07-05 17:40:00,86.2,62.3,29.97,NW,326,0.0,0.0,45,-99.99,,,-99.99,WSDL version 423,2013-07-05 22:40:00,
2013-07-05 17:42:00,86.1,62.3,29.97,WNW,293,0.0,0.0,45,-99.99,,,-99.99,WSDL version 423,2013-07-05 22:42:00,
2013-07-05 17:43:00,86.0,62.3,29.97,SE,133,0.0,0.0,45,-99.99,,,-99.99,WSDL version 423,2013-07-05 22:43:00,
2013-07-05 17:46:00,85.7,62.2,29.97,SE,135,0.0,0.0,46,-99.99,,,-99.99,WSDL version 423,2013-07-05 22:46:00,
2013-07-05 17:48:00,85.6,62.4,29.97,SE,135,0.0,0.0,46,-99.99,,,-99.99,WSDL version 423,2013-07-05 22:48:00,
2013-07-05 17:50:00,85.5,62.5,29.97,ESE,113,0.0,0.0,47,-99.99,,,-99.99,WSDL version 423,2013-07-05 22:50:00,
2013-07-05 17:51:00,85.5,62.6,29.97,ESE,113,0.0,0.0,47,-99.99,,,-99.99,WSDL version 423,2013-07-05 22:51:00,
2013-07-05 17:54:00,85.4,62.9,29.97,NNW,328,0.0,0.0,47,-99.99,,,-99.99,WSDL version 423,2013-07-05 22:54:00,
2013-07-05 17:55:00,85.4,62.9,29.97,NW,315,0.0,0.0,47,-99.99,,,-99.99,WSDL version 423,2013-07-05 22:55:00,
2013-07-05 17:56:00,85.4,62.9,29.97,WNW,295,0.0,0.0,47,-99.99,,,-99.99,WSDL version 423,2013-07-05 22:56:00,
2013-07-05 17:57:00,85.4,63.1,29.97,West,275,0.0,0.0,48,-99.99,,,-99.99,WSDL version 423,2013-07-05 22:57:00,
2013-07-05 18:01:00,85.4,63.3,29.94,North,354,0.0,0.0,47,-99.99,,,-99.99,WSDL version 423,2013-07-05 23:01:00,
2013-07-05 18:03:00,85.3,63.2,29.94,SE,138,0.0,0.0,48,-99.99,,,-99.99,WSDL version 423,2013-07-05 23:03:00,
2013-07-05 18:08:00,84.9,63.0,29.94,WNW,293,0.0,0.0,48,-99.99,,,-99.99,WSDL version 423,2013-07-05 23:08:00,
2013-07-05 18:09:00,84.9,63.0,29.94,WNW,293,0.0,0.0,48,-99.99,,,-99.99,WSDL version 423,2013-07-05 23:09:00,
2013-07-05 18:10:00,84.9,63.0,29.94,WNW,293,0.0,0.0,48,-99.99,,,-99.99,WSDL version 423,2013-07-05 23:10:00,
2013-07-05 18:12:00,84.8,63.2,29.94,WNW,293,0.0,0.0,49,-99.99,,,-99.99,WSDL version 423,2013-07-05 23:12:00,
2013-07-05 18:14:00,84.8,63.3,29.94,WNW,293,0.0,0.0,49,-99.99,,,-99.99,WSDL version 423,2013-07-05 23:14:00,
2013-07-05 18:15:00,84.8,63.4,29.97,WNW,293,0.0,0.0,49,-99.99,,,-99.99,WSDL version 423,2013-07-05 23:15:00,
2013-07-05 18:18:00,84.6,63.2,29.97,WNW,293,0.0,0.0,49,-99.99,,,-99.99,WSDL version 423,2013-07-05 23:18:00,
2013-07-05 18:19:00,84.5,63.2,29.97,WNW,293,0.0,0.0,49,-99.99,,,-99.99,WSDL version 423,2013-07-05 23:19:00,
2013-07-05 18:20:00,84.5,63.2,29.97,WNW,293,0.0,0.0,50,-99.99,,,-99.99,WSDL version 423,2013-07-05 23:20:00,
2013-07-05 18:21:00,84.5,63.3,29.97,WNW,293,0.0,0.0,50,-99.99,,,-99.99,WSDL version 423,2013-07-05 23:21:00,
2013-07-05 18:23:00,84.4,63.4,29.97,WNW,293,0.0,0.0,50,-99.99,,,-99.99,WSDL version 423,2013-07-05 23:23:00,
2013-07-05 18:25:00,84.4,63.5,29.97,WNW,293,0.0,0.0,50,-99.99,,,-99.99,WSDL version 423,2013-07-05 23:25:00,
2013-07-05 18:28:00,84.1,63.3,29.97,NW,310,0.0,0.0,50,-99.99,,,-99.99,WSDL version 423,2013-07-05 23:28:00,
2013-07-05 18:30:00,84.0,63.3,29.94,NW,315,0.0,0.0,51,-99.99,,,-99.99,WSDL version 423,2013-07-05 23:30:00,
2013-07-05 18:33:00,83.9,63.5,29.94,NW,315,0.0,0.0,51,-99.99,,,-99.99,WSDL version 423,2013-07-05 23:33:00,
2013-07-05 18:34:00,83.8,63.5,29.94,NW,315,0.0,0.0,51,-99.99,,,-99.99,WSDL version 423,2013-07-05 23:34:00,
2013-07-05 18:36:00,83.7,63.4,29.94,NW,315,0.0,0.0,51,-99.99,,,-99.99,WSDL version 423,2013-07-05 23:36:00,
2013-07-05 18:37:00,83.6,63.4,29.94,NW,315,0.0,0.0,52,-99.99,,,-99.99,WSDL version 423,2013-07-05 23:37:00,
2013-07-05 18:38:00,83.6,63.5,29.94,NW,315,0.0,0.0,52,-99.99,,,-99.99,WSDL version 423,2013-07-05 23:38:00,
2013-07-05 18:40:00,83.4,63.6,29.94,NW,315,0.0,0.0,52,-99.99,,,-99.99,WSDL version 423,2013-07-05 23:40:00,
2013-07-05 18:42:00,83.3,63.6,29.94,NW,315,0.0,0.0,52,-99.99,,,-99.99,WSDL version 423,2013-07-05 23:42:00,
2013-07-05 18:45:00,83.3,63.5,29.94,NW,315,0.0,0.0,52,-99.99,,,-99.99,WSDL version 423,2013-07-05 23:45:00,
2013-07-05 18:48:00,83.1,63.7,29.94,NW,315,0.0,0.0,52,-99.99,,,-99.99,WSDL version 423,2013-07-05 23:48:00,
2013-07-05 18:50:00,83.0,63.8,29.94,NW,315,0.0,0.0,52,-99.99,,,-99.99,WSDL version 423,2013-07-05 23:50:00,
2013-07-05 18:51:00,83.0,63.8,29.94,NW,315,0.0,0.0,52,-99.99,,,-99.99,WSDL version 423,2013-07-05 23:51:00,
2013-07-05 18:53:00,82.9,63.9,29.94,NW,315,0.0,0.0,53,-99.99,,,-99.99,WSDL version 423,2013-07-05 23:53:00,
2013-07-05 18:54:00,82.9,63.9,29.94,NW,315,0.0,0.0,53,-99.99,,,-99.99,WSDL version 423,2013-07-05 23:54:00,
2013-07-05 18:57:00,82.7,64.0,29.94,NW,315,0.0,0.0,53,-99.99,,,-99.99,WSDL version 423,2013-07-05 23:57:00,
2013-07-05 18:58:00,82.7,64.0,29.94,NW,315,0.0,0.0,53,-99.99,,,-99.99,WSDL version 423,2013-07-05 23:58:00,
2013-07-05 19:01:00,82.6,63.9,29.94,NW,315,0.0,0.0,53,-99.99,,,-99.99,WSDL version 423,2013-07-06 00:01:00,
2013-07-05 19:02:00,82.5,63.8,29.94,NW,315,0.0,0.0,53,-99.99,,,-99.99,WSDL version 423,2013-07-06 00:02:00,
2013-07-05 19:03:00,82.5,63.9,29.94,NW,315,0.0,0.0,54,-99.99,,,-99.99,WSDL version 423,2013-07-06 00:03:00,
2013-07-05 19:04:00,82.4,64.0,29.94,NW,315,0.0,0.0,54,-99.99,,,-99.99,WSDL version 423,2013-07-06 00:04:00,
2013-07-05 19:06:00,82.4,64.1,29.94,NW,315,0.0,0.0,54,-99.99,,,-99.99,WSDL version 423,2013-07-06 00:06:00,
2013-07-05 19:07:00,82.4,64.2,29.94,NW,315,0.0,0.0,54,-99.99,,,-99.99,WSDL version 423,2013-07-06 00:07:00,
2013-07-05 19:08:00,82.3,64.2,29.94,NW,315,0.0,0.0,54,-99.99,,,-99.99,WSDL version 423,2013-07-06 00:08:00,
2013-07-05 19:09:00,82.3,64.1,29.94,NW,315,0.0,0.0,54,-99.99,,,-99.99,WSDL version 423,2013-07-06 00:09:00,
2013-07-05 19:12:00,82.1,64.1,29.94,NW,315,0.0,0.0,55,-99.99,,,-99.99,WSDL version 423,2013-07-06 00:12:00,
2013-07-05 19:13:00,82.1,64.1,29.94,NW,315,0.0,0.0,55,-99.99,,,-99.99,WSDL version 423,2013-07-06 00:13:00,
2013-07-05 19:15:00,82.1,64.2,29.94,NW,315,0.0,0.0,55,-99.99,,,-99.99,WSDL version 423,2013-07-06 00:15:00,
2013-07-05 19:16:00,82.0,64.3,29.94,NW,315,0.0,0.0,55,-99.99,,,-99.99,WSDL version 423,2013-07-06 00:16:00,
2013-07-05 19:17:00,82.0,64.3,29.94,NW,315,0.0,0.0,55,-99.99,,,-99.99,WSDL version 423,2013-07-06 00:17:00,
2013-07-05 19:18:00,81.9,64.3,29.94,NW,315,0.0,0.0,55,-99.99,,,-99.99,WSDL version 423,2013-07-06 00:18:00,
2013-07-05 19:21:00,81.8,64.2,29.94,NW,315,0.0,0.0,55,-99.99,,,-99.99,WSDL version 423,2013-07-06 00:21:00,
2013-07-05 19:24:00,81.7,64.2,29.94,NW,315,0.0,0.0,56,-99.99,,,-99.99,WSDL version 423,2013-07-06 00:24:00,
2013-07-05 19:25:00,81.6,64.3,29.94,NW,315,0.0,0.0,56,-99.99,,,-99.99,WSDL version 423,2013-07-06 00:25:00,
2013-07-05 19:26:00,81.5,64.4,29.94,NW,315,0.0,0.0,56,-99.99,,,-99.99,WSDL version 423,2013-07-06 00:26:00,
2013-07-05 19:28:00,81.4,64.5,29.94,NNW,335,0.0,0.0,57,-99.99,,,-99.99,WSDL version 423,2013-07-06 00:28:00,
2013-07-05 19:30:00,81.3,64.5,29.94,NE,45,0.0,0.0,57,-99.99,,,-99.99,WSDL version 423,2013-07-06 00:30:00,
2013-07-05 19:33:00,81.1,64.6,29.94,NE,45,0.0,0.0,58,-99.99,,,-99.99,WSDL version 423,2013-07-06 00:33:00,
2013-07-05 19:34:00,81.0,64.6,29.94,NE,45,0.0,0.0,58,-99.99,,,-99.99,WSDL version 423,2013-07-06 00:34:00,
2013-07-05 19:35:00,81.0,64.7,29.94,NE,45,0.0,0.0,58,-99.99,,,-99.99,WSDL version 423,2013-07-06 00:35:00,
2013-07-05 19:36:00,80.9,64.7,29.94,NE,45,0.0,0.0,58,-99.99,,,-99.99,WSDL version 423,2013-07-06 00:36:00,
2013-07-05 19:39:00,80.7,64.5,29.94,NE,45,0.0,0.0,58,-99.99,,,-99.99,WSDL version 423,2013-07-06 00:39:00,
2013-07-05 19:40:00,80.6,64.4,29.94,NE,45,0.0,0.0,58,-99.99,,,-99.99,WSDL version 423,2013-07-06 00:40:00,
2013-07-05 19:43:00,80.4,64.0,29.94,ESE,110,0.0,0.0,57,-99.99,,,-99.99,WSDL version 423,2013-07-06 00:43:00,
2013-07-05 19:44:00,80.3,63.9,29.94,SE,125,0.0,0.0,57,-99.99,,,-99.99,WSDL version 423,2013-07-06 00:44:00,
2013-07-05 19:45:00,80.3,63.8,29.94,SE,140,0.0,0.0,57,-99.99,,,-99.99,WSDL version 423,2013-07-06 00:45:00,
2013-07-05 19:46:00,80.3,63.5,29.94,ESE,121,0.0,0.0,55,-99.99,,,-99.99,WSDL version 423,2013-07-06 00:46:00,
2013-07-05 19:49:00,80.1,62.4,29.94,ESE,103,0.0,0.0,54,-99.99,,,-99.99,WSDL version 423,2013-07-06 00:49:00,
2013-07-05 19:50:00,80.0,62.1,29.94,ESE,113,0.0,0.0,54,-99.99,,,-99.99,WSDL version 423,2013-07-06 00:50:00,
2013-07-05 19:51:00,80.0,62.0,29.94,ESE,113,0.0,0.0,54,-99.99,,,-99.99,WSDL version 423,2013-07-06 00:51:00,
2013-07-05 19:53:00,79.9,61.9,29.94,ENE,65,0.0,0.0,54,-99.99,,,-99.99,WSDL version 423,2013-07-06 00:53:00,
2013-07-05 19:55:00,79.6,61.7,29.94,East,90,0.0,0.0,54,-99.99,,,-99.99,WSDL version 423,2013-07-06 00:55:00,
2013-07-05 19:56:00,79.5,61.6,29.94,East,90,0.0,0.0,54,-99.99,,,-99.99,WSDL version 423,2013-07-06 00:56:00,
2013-07-05 20:01:00,79.2,61.7,29.97,East,87,0.0,0.0,55,-99.99,,,-99.99,WSDL version 423,2013-07-06 01:01:00,
2013-07-05 20:02:00,79.1,61.6,29.97,East,90,0.0,0.0,55,-99.99,,,-99.99,WSDL version 423,2013-07-06 01:02:00,
2013-07-05 20:04:00,79.0,61.5,29.97,ENE,76,0.0,0.0,55,-99.99,,,-99.99,WSDL version 423,2013-07-06 01:04:00,
2013-07-05 20:06:00,78.9,61.6,29.97,ENE,68,0.0,0.0,56,-99.99,,,-99.99,WSDL version 423,2013-07-06 01:06:00,
2013-07-05 20:08:00,78.8,61.7,29.97,ENE,68,0.0,0.0,56,-99.99,,,-99.99,WSDL version 423,2013-07-06 01:08:00,
2013-07-05 20:10:00,78.7,61.7,29.97,ENE,68,0.0,0.0,56,-99.99,,,-99.99,WSDL version 423,2013-07-06 01:10:00,
2013-07-05 20:14:00,78.5,61.9,29.97,ENE,68,0.0,0.0,57,-99.99,,,-99.99,WSDL version 423,2013-07-06 01:14:00,
2013-07-05 20:15:00,78.4,62.0,29.94,ENE,68,0.0,0.0,58,-99.99,,,-99.99,WSDL version 423,2013-07-06 01:15:00,
2013-07-05 20:17:00,78.3,62.0,29.94,ENE,68,0.0,0.0,58,-99.99,,,-99.99,WSDL version 423,2013-07-06 01:17:00,
2013-07-05 20:18:00,78.2,62.1,29.94,ENE,68,0.0,0.0,58,-99.99,,,-99.99,WSDL version 423,2013-07-06 01:18:00,
2013-07-05 20:20:00,78.1,61.9,29.94,ENE,68,0.0,0.0,57,-99.99,,,-99.99,WSDL version 423,2013-07-06 01:20:00,
2013-07-05 20:22:00,77.9,61.8,29.94,ENE,68,0.0,0.0,58,-99.99,,,-99.99,WSDL version 423,2013-07-06 01:22:00,
2013-07-05 20:23:00,77.9,61.7,29.94,ENE,68,0.0,0.0,58,-99.99,,,-99.99,WSDL version 423,2013-07-06 01:23:00,
2013-07-05 20:24:00,77.8,61.7,29.94,ENE,68,0.0,0.0,58,-99.99,,,-99.99,WSDL version 423,2013-07-06 01:24:00,
2013-07-05 20:25:00,77.8,61.8,29.94,East,79,0.0,0.0,58,-99.99,,,-99.99,WSDL version 423,2013-07-06 01:25:00,
2013-07-05 20:27:00,77.6,61.7,29.94,East,80,0.0,0.0,59,-99.99,,,-99.99,WSDL version 423,2013-07-06 01:27:00,
2013-07-05 20:30:00,77.5,61.9,29.94,ENE,68,0.0,0.0,59,-99.99,,,-99.99,WSDL version 423,2013-07-06 01:30:00,
2013-07-05 20:32:00,77.5,61.9,29.94,ENE,68,0.0,0.0,59,-99.99,,,-99.99,WSDL version 423,2013-07-06 01:32:00,
2013-07-05 20:33:00,77.4,61.9,29.94,ENE,68,0.0,0.0,59,-99.99,,,-99.99,WSDL version 423,2013-07-06 01:33:00,
2013-07-05 20:35:00,77.3,61.9,29.94,ENE,68,0.0,0.0,60,-99.99,,,-99.99,WSDL version 423,2013-07-06 01:35:00,
2013-07-05 20:37:00,77.2,61.8,29.94,ENE,68,0.0,0.0,60,-99.99,,,-99.99,WSDL version 423,2013-07-06 01:37:00,
2013-07-05 20:38:00,77.2,61.9,29.94,ENE,68,0.0,0.0,60,-99.99,,,-99.99,WSDL version 423,2013-07-06 01:38:00,
2013-07-05 20:42:00,77.1,62.0,29.94,ENE,68,0.0,0.0,60,-99.99,,,-99.99,WSDL version 423,2013-07-06 01:42:00,
2013-07-05 20:43:00,77.0,62.0,29.94,East,93,0.0,0.0,60,-99.99,,,-99.99,WSDL version 423,2013-07-06 01:43:00,
2013-07-05 20:46:00,77.0,62.2,29.97,NE,45,0.0,0.0,61,-99.99,,,-99.99,WSDL version 423,2013-07-06 01:46:00,
2013-07-05 20:48:00,76.9,62.3,29.97,ESE,120,0.0,0.0,61,-99.99,,,-99.99,WSDL version 423,2013-07-06 01:48:00,
2013-07-05 20:49:00,76.9,62.3,29.97,SE,141,0.0,0.0,61,-99.99,,,-99.99,WSDL version 423,2013-07-06 01:49:00,
2013-07-05 20:50:00,76.9,62.2,29.97,SE,135,0.0,0.0,61,-99.99,,,-99.99,WSDL version 423,2013-07-06 01:50:00,
2013-07-05 20:51:00,76.9,62.2,29.97,SE,135,0.0,0.0,61,-99.99,,,-99.99,WSDL version 423,2013-07-06 01:51:00,
2013-07-05 20:52:00,76.9,62.3,29.97,SE,135,0.0,0.0,62,-99.99,,,-99.99,WSDL version 423,2013-07-06 01:52:00,
2013-07-05 20:54:00,76.8,62.4,29.97,SE,135,0.0,0.0,62,-99.99,,,-99.99,WSDL version 423,2013-07-06 01:54:00,
2013-07-05 20:57:00,76.8,62.6,29.97,WNW,293,0.0,0.0,62,-99.99,,,-99.99,WSDL version 423,2013-07-06 01:57:00,
2013-07-05 20:58:00,76.8,62.6,29.97,WNW,293,0.0,0.0,62,-99.99,,,-99.99,WSDL version 423,2013-07-06 01:58:00,
2013-07-05 20:59:00,76.7,62.5,29.97,WNW,293,0.0,0.0,62,-99.99,,,-99.99,WSDL version 423,2013-07-06 01:59:00,
2013-07-05 21:02:00,76.6,62.6,29.97,WNW,293,0.0,0.0,62,-99.99,,,-99.99,WSDL version 423,2013-07-06 02:02:00,
2013-07-05 21:03:00,76.5,62.7,29.97,WNW,293,0.0,0.0,62,-99.99,,,-99.99,WSDL version 423,2013-07-06 02:03:00,
2013-07-05 21:04:00,76.5,62.7,29.97,WNW,293,0.0,0.0,62,-99.99,,,-99.99,WSDL version 423,2013-07-06 02:04:00,
2013-07-05 21:08:00,76.4,62.8,29.97,WNW,293,0.0,0.0,63,-99.99,,,-99.99,WSDL version 423,2013-07-06 02:08:00,
2013-07-05 21:10:00,76.4,62.9,29.97,WNW,293,0.0,0.0,63,-99.99,,,-99.99,WSDL version 423,2013-07-06 02:10:00,
2013-07-05 21:11:00,76.3,63.0,29.97,WNW,293,0.0,0.0,63,-99.99,,,-99.99,WSDL version 423,2013-07-06 02:11:00,
2013-07-05 21:16:00,76.1,62.9,29.97,WNW,293,0.0,0.0,64,-99.99,,,-99.99,WSDL version 423,2013-07-06 02:16:00,
2013-07-05 21:17:00,76.1,63.0,29.97,WNW,293,0.0,0.0,64,-99.99,,,-99.99,WSDL version 423,2013-07-06 02:17:00,
2013-07-05 21:19:00,76.1,63.1,29.97,WNW,293,0.0,0.0,64,-99.99,,,-99.99,WSDL version 423,2013-07-06 02:19:00,
2013-07-05 21:21:00,76.1,63.1,29.97,WNW,293,0.0,0.0,64,-99.99,,,-99.99,WSDL version 423,2013-07-06 02:21:00,
2013-07-05 21:22:00,76.1,63.1,29.97,WNW,293,0.0,0.0,64,-99.99,,,-99.99,WSDL version 423,2013-07-06 02:22:00,
2013-07-05 21:23:00,76.1,63.1,29.97,WNW,293,0.0,0.0,64,-99.99,,,-99.99,WSDL version 423,2013-07-06 02:23:00,
2013-07-05 21:26:00,76.0,63.2,29.97,WNW,293,0.0,0.0,65,-99.99,,,-99.99,WSDL version 423,2013-07-06 02:26:00,
2013-07-05 21:27:00,76.0,63.3,29.97,WNW,293,0.0,0.0,65,-99.99,,,-99.99,WSDL version 423,2013-07-06 02:27:00,
2013-07-05 21:28:00,76.1,63.4,29.97,WNW,293,0.0,0.0,65,-99.99,,,-99.99,WSDL version 423,2013-07-06 02:28:00,
2013-07-05 21:29:00,76.0,63.4,29.97,WNW,293,0.0,0.0,65,-99.99,,,-99.99,WSDL version 423,2013-07-06 02:29:00,
2013-07-05 21:31:00,76.0,63.4,29.97,WNW,293,0.0,0.0,65,-99.99,,,-99.99,WSDL version 423,2013-07-06 02:31:00,
2013-07-05 21:33:00,75.9,63.4,29.97,WNW,293,0.0,0.0,65,-99.99,,,-99.99,WSDL version 423,2013-07-06 02:33:00,
2013-07-05 21:34:00,75.9,63.5,29.97,WNW,293,0.0,0.0,66,-99.99,,,-99.99,WSDL version 423,2013-07-06 02:34:00,
2013-07-05 21:36:00,75.8,63.6,29.97,NW,305,0.0,0.0,66,-99.99,,,-99.99,WSDL version 423,2013-07-06 02:36:00,
2013-07-05 21:37:00,75.8,63.6,29.97,NW,315,0.0,0.0,66,-99.99,,,-99.99,WSDL version 423,2013-07-06 02:37:00,
2013-07-05 21:39:00,75.7,63.6,29.97,NW,315,0.0,0.0,66,-99.99,,,-99.99,WSDL version 423,2013-07-06 02:39:00,
2013-07-05 21:42:00,75.7,63.6,29.97,NW,315,0.0,0.0,66,-99.99,,,-99.99,WSDL version 423,2013-07-06 02:42:00,
2013-07-05 21:44:00,75.7,63.7,29.97,NW,315,0.0,0.0,67,-99.99,,,-99.99,WSDL version 423,2013-07-06 02:44:00,
2013-07-05 21:45:00,75.6,63.8,29.97,NW,315,0.0,0.0,67,-99.99,,,-99.99,WSDL version 423,2013-07-06 02:45:00,
2013-07-05 21:46:00,75.6,63.8,29.97,NW,315,0.0,0.0,67,-99.99,,,-99.99,WSDL version 423,2013-07-06 02:46:00,
2013-07-05 21:47:00,75.6,63.9,29.97,NW,315,0.0,0.0,67,-99.99,,,-99.99,WSDL version 423,2013-07-06 02:47:00,
2013-07-05 21:51:00,75.4,63.9,29.97,NW,315,0.0,0.0,68,-99.99,,,-99.99,WSDL version 423,2013-07-06 02:51:00,
2013-07-05 21:52:00,75.4,63.9,29.97,NW,315,0.0,0.0,68,-99.99,,,-99.99,WSDL version 423,2013-07-06 02:52:00,
2013-07-05 21:53:00,75.4,64.0,29.97,NW,315,0.0,0.0,68,-99.99,,,-99.99,WSDL version 423,2013-07-06 02:53:00,
2013-07-05 21:57:00,75.4,64.3,29.97,NW,315,0.0,0.0,69,-99.99,,,-99.99,WSDL version 423,2013-07-06 02:57:00,
2013-07-05 21:58:00,75.4,64.4,29.97,NW,315,0.0,0.0,69,-99.99,,,-99.99,WSDL version 423,2013-07-06 02:58:00,
2013-07-05 21:59:00,75.3,64.4,29.97,NW,315,0.0,0.0,69,-99.99,,,-99.99,WSDL version 423,2013-07-06 02:59:00,
2013-07-05 22:03:00,75.2,64.3,30.00,NW,315,0.0,0.0,70,-99.99,,,-99.99,WSDL version 423,2013-07-06 03:03:00,
2013-07-05 22:04:00,75.2,64.4,30.00,NW,315,0.0,0.0,70,-99.99,,,-99.99,WSDL version 423,2013-07-06 03:04:00,
2013-07-05 22:06:00,75.1,64.5,30.00,NNW,343,0.0,0.0,70,-99.99,,,-99.99,WSDL version 423,2013-07-06 03:06:00,
2013-07-05 22:09:00,75.0,64.5,30.00,NE,53,0.0,0.0,71,-99.99,,,-99.99,WSDL version 423,2013-07-06 03:09:00,
2013-07-05 22:10:00,75.0,64.5,30.00,ENE,68,0.0,0.0,70,-99.99,,,-99.99,WSDL version 423,2013-07-06 03:10:00,
2013-07-05 22:13:00,75.0,64.7,30.00,ENE,68,0.0,0.0,71,-99.99,,,-99.99,WSDL version 423,2013-07-06 03:13:00,
2013-07-05 22:17:00,74.9,64.7,29.97,ENE,68,0.0,0.0,71,-99.99,,,-99.99,WSDL version 423,2013-07-06 03:17:00,
2013-07-05 22:19:00,74.8,64.7,29.97,ENE,68,0.0,0.0,71,-99.99,,,-99.99,WSDL version 423,2013-07-06 03:19:00,
2013-07-05 22:20:00,74.8,64.7,29.97,ENE,68,0.0,0.0,72,-99.99,,,-99.99,WSDL version 423,2013-07-06 03:20:00,
2013-07-05 22:22:00,74.8,64.9,29.97,ENE,68,0.0,0.0,72,-99.99,,,-99.99,WSDL version 423,2013-07-06 03:22:00,
2013-07-05 22:23:00,74.8,65.0,29.97,ENE,68,0.0,0.0,72,-99.99,,,-99.99,WSDL version 423,2013-07-06 03:23:00,
2013-07-05 22:25:00,74.7,65.1,29.97,ENE,68,0.0,0.0,72,-99.99,,,-99.99,WSDL version 423,2013-07-06 03:25:00,
2013-07-05 22:28:00,74.6,65.2,29.97,ENE,68,0.0,0.0,72,-99.99,,,-99.99,WSDL version 423,2013-07-06 03:28:00,
2013-07-05 22:30:00,74.6,65.2,30.00,ENE,68,0.0,0.0,72,-99.99,,,-99.99,WSDL version 423,2013-07-06 03:30:00,
2013-07-05 22:31:00,74.6,65.2,30.00,ENE,68,0.0,0.0,72,-99.99,,,-99.99,WSDL version 423,2013-07-06 03:31:00,
2013-07-05 22:35:00,74.5,65.2,30.00,ENE,68,0.0,0.0,73,-99.99,,,-99.99,WSDL version 423,2013-07-06 03:35:00,
2013-07-05 22:36:00,74.5,65.3,30.00,ENE,68,0.0,0.0,73,-99.99,,,-99.99,WSDL version 423,2013-07-06 03:36:00,
2013-07-05 22:37:00,74.5,65.3,30.00,ENE,68,0.0,0.0,73,-99.99,,,-99.99,WSDL version 423,2013-07-06 03:37:00,
2013-07-05 22:38:00,74.5,65.4,30.00,ENE,68,0.0,0.0,73,-99.99,,,-99.99,WSDL version 423,2013-07-06 03:38:00,
2013-07-05 22:41:00,74.5,65.4,30.00,ENE,68,0.0,0.0,73,-99.99,,,-99.99,WSDL version 423,2013-07-06 03:41:00,
2013-07-05 22:42:00,74.5,65.5,30.00,ENE,68,0.0,0.0,74,-99.99,,,-99.99,WSDL version 423,2013-07-06 03:42:00,
2013-07-05 22:45:00,74.5,65.5,30.00,ENE,68,0.0,0.0,73,-99.99,,,-99.99,WSDL version 423,2013-07-06 03:45:00,
2013-07-05 22:46:00,74.5,65.5,30.00,ENE,68,0.0,0.0,74,-99.99,,,-99.99,WSDL version 423,2013-07-06 03:46:00,
2013-07-05 22:53:00,74.4,65.9,30.00,ENE,68,0.0,0.0,75,-99.99,,,-99.99,WSDL version 423,2013-07-06 03:53:00,
2013-07-05 22:56:00,74.3,66.0,30.00,ENE,68,0.0,0.0,75,-99.99,,,-99.99,WSDL version 423,2013-07-06 03:56:00,
2013-07-05 22:59:00,74.3,65.9,30.00,ENE,68,0.0,0.0,75,-99.99,,,-99.99,WSDL version 423,2013-07-06 03:59:00,
2013-07-05 23:00:00,74.3,66.0,29.97,ENE,68,0.0,0.0,76,-99.99,,,-99.99,WSDL version 423,2013-07-06 04:00:00,
2013-07-05 23:01:00,74.3,66.0,29.97,ENE,68,0.0,0.0,76,-99.99,,,-99.99,WSDL version 423,2013-07-06 04:01:00,
2013-07-05 23:03:00,74.3,66.1,29.97,ENE,68,0.0,0.0,76,-99.99,,,-99.99,WSDL version 423,2013-07-06 04:03:00,
2013-07-05 23:06:00,74.3,66.2,29.97,ENE,68,0.0,0.0,76,-99.99,,,-99.99,WSDL version 423,2013-07-06 04:06:00,
2013-07-05 23:08:00,74.3,66.3,29.97,ENE,68,0.0,0.0,76,-99.99,,,-99.99,WSDL version 423,2013-07-06 04:08:00,
2013-07-05 23:10:00,74.3,66.3,29.97,ENE,68,0.0,0.0,76,-99.99,,,-99.99,WSDL version 423,2013-07-06 04:10:00,
2013-07-05 23:11:00,74.3,66.3,29.97,ENE,68,0.0,0.0,77,-99.99,,,-99.99,WSDL version 423,2013-07-06 04:11:00,
2013-07-05 23:12:00,74.3,66.4,29.97,ENE,68,0.0,0.0,77,-99.99,,,-99.99,WSDL version 423,2013-07-06 04:12:00,
2013-07-05 23:13:00,74.3,66.5,29.97,ENE,68,0.0,0.0,77,-99.99,,,-99.99,WSDL version 423,2013-07-06 04:13:00,
2013-07-05 23:16:00,74.2,66.5,29.97,ENE,68,0.0,0.0,77,-99.99,,,-99.99,WSDL version 423,2013-07-06 04:16:00,
2013-07-05 23:17:00,74.1,66.5,29.97,ENE,68,0.0,0.0,77,-99.99,,,-99.99,WSDL version 423,2013-07-06 04:17:00,
2013-07-05 23:18:00,74.1,66.4,29.97,ENE,68,0.0,0.0,77,-99.99,,,-99.99,WSDL version 423,2013-07-06 04:18:00,
2013-07-05 23:19:00,74.1,66.4,29.97,ENE,68,0.0,0.0,77,-99.99,,,-99.99,WSDL version 423,2013-07-06 04:19:00,
2013-07-05 23:21:00,74.1,66.4,29.97,ENE,68,0.0,0.0,77,-99.99,,,-99.99,WSDL version 423,2013-07-06 04:21:00,
2013-07-05 23:24:00,74.2,66.6,29.97,ENE,68,0.0,0.0,78,-99.99,,,-99.99,WSDL version 423,2013-07-06 04:24:00,
2013-07-05 23:25:00,74.2,66.7,29.97,ENE,68,0.0,0.0,78,-99.99,,,-99.99,WSDL version 423,2013-07-06 04:25:00,
2013-07-05 23:26:00,74.3,66.8,29.97,ENE,68,0.0,0.0,78,-99.99,,,-99.99,WSDL version 423,2013-07-06 04:26:00,
2013-07-05 23:27:00,74.3,66.9,29.97,ENE,68,0.0,0.0,78,-99.99,,,-99.99,WSDL version 423,2013-07-06 04:27:00,
2013-07-05 23:31:00,74.3,67.0,29.97,ENE,68,0.0,0.0,78,-99.99,,,-99.99,WSDL version 423,2013-07-06 04:31:00,
2013-07-05 23:32:00,74.3,67.0,29.97,ENE,68,0.0,0.0,78,-99.99,,,-99.99,WSDL version 423,2013-07-06 04:32:00,
2013-07-05 23:35:00,74.3,67.0,29.97,ENE,68,0.0,0.0,78,-99.99,,,-99.99,WSDL version 423,2013-07-06 04:35:00,
2013-07-05 23:36:00,74.3,67.0,29.97,ENE,68,0.0,0.0,78,-99.99,,,-99.99,WSDL version 423,2013-07-06 04:36:00,
2013-07-05 23:38:00,74.3,67.0,29.97,ENE,68,0.0,0.0,78,-99.99,,,-99.99,WSDL version 423,2013-07-06 04:38:00,
2013-07-05 23:41:00,74.2,67.1,29.97,ENE,68,0.0,0.0,79,-99.99,,,-99.99,WSDL version 423,2013-07-06 04:41:00,
2013-07-05 23:43:00,74.1,67.1,29.97,ENE,68,0.0,0.0,79,-99.99,,,-99.99,WSDL version 423,2013-07-06 04:43:00,
2013-07-05 23:44:00,74.1,67.1,29.97,ENE,68,0.0,0.0,79,-99.99,,,-99.99,WSDL version 423,2013-07-06 04:44:00,
2013-07-05 23:45:00,74.1,67.1,29.97,ENE,68,0.0,0.0,79,-99.99,,,-99.99,WSDL version 423,2013-07-06 04:45:00,
2013-07-05 23:46:00,74.1,67.1,29.97,ENE,68,0.0,0.0,79,-99.99,,,-99.99,WSDL version 423,2013-07-06 04:46:00,
2013-07-05 23:49:00,74.1,67.2,29.97,ENE,68,0.0,0.0,80,-99.99,,,-99.99,WSDL version 423,2013-07-06 04:49:00,
2013-07-05 23:51:00,74.1,67.4,29.97,ENE,68,0.0,0.0,80,-99.99,,,-99.99,WSDL version 423,2013-07-06 04:51:00,
2013-07-05 23:53:00,74.1,67.5,29.97,NNW,348,0.0,0.0,80,-99.99,,,-99.99,WSDL version 423,2013-07-06 04:53:00,
2013-07-05 23:55:00,74.1,67.5,29.97,NNW,338,0.0,0.0,80,-99.99,,,-99.99,WSDL version 423,2013-07-06 04:55:00,
2013-07-05 23:56:00,74.1,67.5,29.97,NNW,338,0.0,0.0,80,-99.99,,,-99.99,WSDL version 423,2013-07-06 04:56:00,
2013-07-05 23:58:00,74.1,67.5,29.97,NNW,338,0.0,0.0,80,-99.99,,,-99.99,WSDL version 423,2013-07-06 04:58:00,
2013-07-05 23:59:00,74.1,67.5,29.97,NNW,338,0.0,0.0,80,-99.99,,,-99.99,WSDL version 423,2013-07-06 04:59:00,